Time,TemperatureF,DewpointF,PressureIn,WindDirection,WindDirectionDegrees,WindSpeedMPH,WindSpeedGustMPH,Humidity,HourlyPrecipIn,Conditions,Clouds,dailyrainin,SolarRadiationWatts/m^2,SoftwareType,DateUTC
2013-01-15 00:01:00,64.0,60.1,30.05,WSW,248,2.0,-999.0,87,0.02,,,0.03,0,Wunderground v.1.15,2013-01-14 13:01:00,
2013-01-15 00:04:00,64.0,60.1,30.05,WSW,248,2.0,-999.0,87,0.02,,,0.03,0,Wunderground v.1.15,2013-01-14 13:04:00,
2013-01-15 00:06:00,64.0,60.1,30.05,WSW,248,2.0,-999.0,87,0.02,,,0.03,0,Wunderground v.1.15,2013-01-14 13:06:00,
2013-01-15 00:09:00,63.9,60.3,30.05,WSW,251,2.0,2.0,88,0.00,,,0.00,0,Wunderground v.1.15,2013-01-14 13:09:00,
2013-01-15 00:11:00,64.0,60.1,30.05,WSW,248,2.0,-999.0,87,0.02,,,0.03,0,Wunderground v.1.15,2013-01-14 13:11:00,
2013-01-15 00:14:00,63.9,60.0,30.05,WNW,288,2.0,2.0,87,0.00,,,0.00,0,Wunderground v.1.15,2013-01-14 13:14:00,
2013-01-15 00:16:00,64.0,60.1,30.05,WSW,248,2.0,-999.0,87,0.00,,,0.03,0,Wunderground v.1.15,2013-01-14 13:16:00,
2013-01-15 00:19:00,64.0,60.1,30.05,WSW,248,2.0,-999.0,87,0.00,,,0.03,0,Wunderground v.1.15,2013-01-14 13:19:00,
2013-01-15 00:21:00,64.0,60.1,30.05,WSW,248,2.0,-999.0,87,0.00,,,0.03,0,Wunderground v.1.15,2013-01-14 13:21:00,
2013-01-15 00:24:00,64.0,60.1,30.05,WNW,293,2.0,2.0,87,0.00,,,0.00,0,Wunderground v.1.15,2013-01-14 13:24:00,
2013-01-15 00:26:00,64.0,60.1,30.05,WSW,248,2.0,-999.0,87,0.00,,,0.03,0,Wunderground v.1.15,2013-01-14 13:26:00,
2013-01-15 00:29:00,64.1,60.2,30.05,South,186,2.0,2.0,87,0.00,,,0.00,0,Wunderground v.1.15,2013-01-14 13:29:00,
2013-01-15 00:31:00,64.0,60.1,30.05,WSW,248,2.0,-999.0,87,0.00,,,0.03,0,Wunderground v.1.15,2013-01-14 13:31:00,
2013-01-15 00:34:00,64.4,60.4,30.05,West,281,1.0,1.0,87,0.00,,,0.00,0,Wunderground v.1.15,2013-01-14 13:34:00,
2013-01-15 00:36:00,64.0,60.1,30.05,WSW,248,2.0,-999.0,87,0.00,,,0.03,0,Wunderground v.1.15,2013-01-14 13:36:00,
2013-01-15 00:39:00,64.5,60.5,30.05,SSW,212,1.0,1.0,87,0.00,,,0.00,0,Wunderground v.1.15,2013-01-14 13:39:00,
2013-01-15 00:41:00,64.0,60.1,30.05,WSW,248,2.0,-999.0,87,0.00,,,0.03,0,Wunderground v.1.15,2013-01-14 13:41:00,
2013-01-15 00:44:00,64.0,60.1,30.05,WSW,248,2.0,-999.0,87,0.00,,,0.03,0,Wunderground v.1.15,2013-01-14 13:44:00,
2013-01-15 00:46:00,64.5,59.9,30.04,WSW,248,1.0,-999.0,85,0.00,,,0.03,0,Wunderground v.1.15,2013-01-14 13:46:00,
2013-01-15 00:49:00,64.5,60.2,30.04,West,269,1.0,2.0,86,0.00,,,0.00,0,Wunderground v.1.15,2013-01-14 13:49:00,
2013-01-15 00:51:00,64.5,59.9,30.04,WSW,248,1.0,-999.0,85,0.00,,,0.03,0,Wunderground v.1.15,2013-01-14 13:51:00,
2013-01-15 00:54:00,64.5,60.2,30.04,WNW,292,1.0,1.0,86,0.00,,,0.00,0,Wunderground v.1.15,2013-01-14 13:54:00,
2013-01-15 00:56:00,64.5,59.9,30.04,WSW,248,1.0,-999.0,85,0.00,,,0.03,0,Wunderground v.1.15,2013-01-14 13:56:00,
2013-01-15 00:59:00,64.5,59.9,30.04,WSW,248,1.0,-999.0,85,0.00,,,0.03,0,Wunderground v.1.15,2013-01-14 13:59:00,
2013-01-15 01:01:00,64.5,59.9,30.04,WSW,248,1.0,-999.0,85,0.00,,,0.03,0,Wunderground v.1.15,2013-01-14 14:01:00,
2013-01-15 01:04:00,64.5,59.9,30.04,WSW,248,1.0,-999.0,85,0.00,,,0.03,0,Wunderground v.1.15,2013-01-14 14:04:00,
2013-01-15 01:06:00,64.5,59.9,30.04,WSW,248,1.0,-999.0,85,0.00,,,0.03,0,Wunderground v.1.15,2013-01-14 14:06:00,
2013-01-15 01:09:00,64.5,59.9,30.04,WSW,248,1.0,-999.0,85,0.00,,,0.03,0,Wunderground v.1.15,2013-01-14 14:09:00,
2013-01-15 01:11:00,64.5,59.9,30.04,WSW,248,1.0,-999.0,85,0.00,,,0.03,0,Wunderground v.1.15,2013-01-14 14:11:00,
2013-01-15 01:14:00,64.5,59.9,30.04,WSW,248,1.0,-999.0,85,0.00,,,0.03,0,Wunderground v.1.15,2013-01-14 14:14:00,
2013-01-15 01:16:00,64.2,59.3,30.03,SW,225,1.0,-999.0,84,0.00,,,0.03,0,Wunderground v.1.15,2013-01-14 14:16:00,
2013-01-15 01:19:00,64.2,59.3,30.03,SW,225,1.0,-999.0,84,0.00,,,0.03,0,Wunderground v.1.15,2013-01-14 14:19:00,
2013-01-15 01:21:00,64.2,59.3,30.03,SW,225,1.0,-999.0,84,0.00,,,0.03,0,Wunderground v.1.15,2013-01-14 14:21:00,
2013-01-15 01:24:00,64.2,59.3,30.03,SW,225,1.0,-999.0,84,0.00,,,0.03,0,Wunderground v.1.15,2013-01-14 14:24:00,
2013-01-15 01:26:00,64.2,59.3,30.03,SW,225,1.0,-999.0,84,0.00,,,0.03,0,Wunderground v.1.15,2013-01-14 14:26:00,
2013-01-15 01:29:00,64.2,59.3,30.03,SW,225,1.0,-999.0,84,0.00,,,0.03,0,Wunderground v.1.15,2013-01-14 14:29:00,
2013-01-15 01:31:00,64.2,59.3,30.03,SW,225,1.0,-999.0,84,0.00,,,0.03,0,Wunderground v.1.15,2013-01-14 14:31:00,
2013-01-15 01:34:00,64.2,59.3,30.03,SW,225,1.0,-999.0,84,0.00,,,0.03,0,Wunderground v.1.15,2013-01-14 14:34:00,
2013-01-15 01:36:00,64.2,59.3,30.03,SW,225,1.0,-999.0,84,0.00,,,0.03,0,Wunderground v.1.15,2013-01-14 14:36:00,
2013-01-15 01:39:00,64.2,59.3,30.03,SW,225,1.0,-999.0,84,0.00,,,0.03,0,Wunderground v.1.15,2013-01-14 14:39:00,
2013-01-15 01:41:00,64.2,59.3,30.03,SW,225,1.0,-999.0,84,0.00,,,0.03,0,Wunderground v.1.15,2013-01-14 14:41:00,
2013-01-15 01:44:00,64.2,59.3,30.03,SW,225,1.0,-999.0,84,0.00,,,0.03,0,Wunderground v.1.15,2013-01-14 14:44:00,
2013-01-15 01:46:00,63.9,58.6,30.02,NW,315,0.0,-999.0,83,0.00,,,0.03,0,Wunderground v.1.15,2013-01-14 14:46:00,
2013-01-15 01:49:00,63.9,58.6,30.02,NW,315,0.0,-999.0,83,0.00,,,0.03,0,Wunderground v.1.15,2013-01-14 14:49:00,
2013-01-15 01:51:00,63.9,58.6,30.02,NW,315,0.0,-999.0,83,0.00,,,0.03,0,Wunderground v.1.15,2013-01-14 14:51:00,
2013-01-15 01:54:00,63.9,58.6,30.02,NW,315,0.0,-999.0,83,0.00,,,0.03,0,Wunderground v.1.15,2013-01-14 14:54:00,
2013-01-15 01:56:00,63.9,58.6,30.02,NW,315,0.0,-999.0,83,0.00,,,0.03,0,Wunderground v.1.15,2013-01-14 14:56:00,
2013-01-15 01:59:00,63.9,58.6,30.02,NW,315,0.0,-999.0,83,0.00,,,0.03,0,Wunderground v.1.15,2013-01-14 14:59:00,
2013-01-15 02:01:00,63.9,58.6,30.02,NW,315,0.0,-999.0,83,0.00,,,0.03,0,Wunderground v.1.15,2013-01-14 15:01:00,
2013-01-15 02:04:00,63.9,58.6,30.02,NW,315,0.0,-999.0,83,0.00,,,0.03,0,Wunderground v.1.15,2013-01-14 15:04:00,
2013-01-15 02:06:00,63.9,58.6,30.02,NW,315,0.0,-999.0,83,0.00,,,0.03,0,Wunderground v.1.15,2013-01-14 15:06:00,
2013-01-15 02:09:00,63.9,58.6,30.02,NW,315,0.0,-999.0,83,0.00,,,0.03,0,Wunderground v.1.15,2013-01-14 15:09:00,
2013-01-15 02:11:00,63.9,58.6,30.02,NW,315,0.0,-999.0,83,0.00,,,0.03,0,Wunderground v.1.15,2013-01-14 15:11:00,
2013-01-15 02:14:00,63.9,58.6,30.02,NW,315,0.0,-999.0,83,0.00,,,0.03,0,Wunderground v.1.15,2013-01-14 15:14:00,
2013-01-15 02:16:00,63.8,58.9,30.02,WSW,248,0.0,-999.0,84,0.00,,,0.03,0,Wunderground v.1.15,2013-01-14 15:16:00,
2013-01-15 02:19:00,63.8,58.9,30.02,WSW,248,0.0,-999.0,84,0.00,,,0.03,0,Wunderground v.1.15,2013-01-14 15:19:00,
2013-01-15 02:21:00,63.8,58.9,30.02,WSW,248,0.0,-999.0,84,0.00,,,0.03,0,Wunderground v.1.15,2013-01-14 15:21:00,
2013-01-15 02:24:00,63.8,58.9,30.02,WSW,248,0.0,-999.0,84,0.00,,,0.03,0,Wunderground v.1.15,2013-01-14 15:24:00,
2013-01-15 02:26:00,63.8,58.9,30.02,WSW,248,0.0,-999.0,84,0.00,,,0.03,0,Wunderground v.1.15,2013-01-14 15:26:00,
2013-01-15 02:29:00,63.8,58.9,30.02,WSW,248,0.0,-999.0,84,0.00,,,0.03,0,Wunderground v.1.15,2013-01-14 15:29:00,
2013-01-15 02:31:00,63.8,58.9,30.02,WSW,248,0.0,-999.0,84,0.00,,,0.03,0,Wunderground v.1.15,2013-01-14 15:31:00,
2013-01-15 02:34:00,63.8,58.9,30.02,WSW,248,0.0,-999.0,84,0.00,,,0.03,0,Wunderground v.1.15,2013-01-14 15:34:00,
2013-01-15 02:36:00,63.8,58.9,30.02,WSW,248,0.0,-999.0,84,0.00,,,0.03,0,Wunderground v.1.15,2013-01-14 15:36:00,
2013-01-15 02:39:00,63.8,58.9,30.02,WSW,248,0.0,-999.0,84,0.00,,,0.03,0,Wunderground v.1.15,2013-01-14 15:39:00,
2013-01-15 02:41:00,63.8,58.9,30.02,WSW,248,0.0,-999.0,84,0.00,,,0.03,0,Wunderground v.1.15,2013-01-14 15:41:00,
2013-01-15 02:44:00,63.8,58.9,30.02,WSW,248,0.0,-999.0,84,0.00,,,0.03,0,Wunderground v.1.15,2013-01-14 15:44:00,
2013-01-15 02:46:00,63.7,59.1,30.01,WSW,248,0.0,-999.0,85,0.00,,,0.03,0,Wunderground v.1.15,2013-01-14 15:46:00,
2013-01-15 02:49:00,63.7,59.1,30.01,WSW,248,0.0,-999.0,85,0.00,,,0.03,0,Wunderground v.1.15,2013-01-14 15:49:00,
2013-01-15 02:51:00,63.7,59.1,30.01,WSW,248,0.0,-999.0,85,0.00,,,0.03,0,Wunderground v.1.15,2013-01-14 15:51:00,
2013-01-15 02:54:00,63.7,59.1,30.01,WSW,248,0.0,-999.0,85,0.00,,,0.03,0,Wunderground v.1.15,2013-01-14 15:54:00,
2013-01-15 02:56:00,63.7,59.1,30.01,WSW,248,0.0,-999.0,85,0.00,,,0.03,0,Wunderground v.1.15,2013-01-14 15:56:00,
2013-01-15 02:59:00,63.7,59.1,30.01,WSW,248,0.0,-999.0,85,0.00,,,0.03,0,Wunderground v.1.15,2013-01-14 15:59:00,
2013-01-15 03:01:00,63.7,59.1,30.01,WSW,248,0.0,-999.0,85,0.00,,,0.03,0,Wunderground v.1.15,2013-01-14 16:01:00,
2013-01-15 03:04:00,63.7,59.1,30.01,WSW,248,0.0,-999.0,85,0.00,,,0.03,0,Wunderground v.1.15,2013-01-14 16:04:00,
2013-01-15 03:06:00,63.7,59.1,30.01,WSW,248,0.0,-999.0,85,0.00,,,0.03,0,Wunderground v.1.15,2013-01-14 16:06:00,
2013-01-15 03:09:00,63.7,59.1,30.01,WSW,248,0.0,-999.0,85,0.00,,,0.03,0,Wunderground v.1.15,2013-01-14 16:09:00,
2013-01-15 03:11:00,63.7,59.1,30.01,WSW,248,0.0,-999.0,85,0.00,,,0.03,0,Wunderground v.1.15,2013-01-14 16:11:00,
2013-01-15 03:14:00,63.7,59.1,30.01,WSW,248,0.0,-999.0,85,0.00,,,0.03,0,Wunderground v.1.15,2013-01-14 16:14:00,
2013-01-15 03:16:00,63.5,58.9,30.01,NNW,338,0.0,-999.0,85,0.00,,,0.03,0,Wunderground v.1.15,2013-01-14 16:16:00,
2013-01-15 03:19:00,63.5,58.9,30.01,NNW,338,0.0,-999.0,85,0.00,,,0.03,0,Wunderground v.1.15,2013-01-14 16:19:00,
2013-01-15 03:21:00,63.5,58.9,30.01,NNW,338,0.0,-999.0,85,0.00,,,0.03,0,Wunderground v.1.15,2013-01-14 16:21:00,
2013-01-15 03:24:00,63.5,58.9,30.01,NNW,338,0.0,-999.0,85,0.00,,,0.03,0,Wunderground v.1.15,2013-01-14 16:24:00,
2013-01-15 03:26:00,63.5,58.9,30.01,NNW,338,0.0,-999.0,85,0.00,,,0.03,0,Wunderground v.1.15,2013-01-14 16:26:00,
2013-01-15 03:29:00,63.5,58.9,30.01,NNW,338,0.0,-999.0,85,0.00,,,0.03,0,Wunderground v.1.15,2013-01-14 16:29:00,
2013-01-15 03:31:00,63.5,58.9,30.01,NNW,338,0.0,-999.0,85,0.00,,,0.03,0,Wunderground v.1.15,2013-01-14 16:31:00,
2013-01-15 03:34:00,63.5,58.9,30.01,NNW,338,0.0,-999.0,85,0.00,,,0.03,0,Wunderground v.1.15,2013-01-14 16:34:00,
2013-01-15 03:36:00,63.5,58.9,30.01,NNW,338,0.0,-999.0,85,0.00,,,0.03,0,Wunderground v.1.15,2013-01-14 16:36:00,
2013-01-15 03:39:00,63.5,58.9,30.01,NNW,338,0.0,-999.0,85,0.00,,,0.03,0,Wunderground v.1.15,2013-01-14 16:39:00,
2013-01-15 03:41:00,63.5,58.9,30.01,NNW,338,0.0,-999.0,85,0.00,,,0.03,0,Wunderground v.1.15,2013-01-14 16:41:00,
2013-01-15 03:44:00,63.5,58.9,30.01,NNW,338,0.0,-999.0,85,0.00,,,0.03,0,Wunderground v.1.15,2013-01-14 16:44:00,
2013-01-15 03:46:00,63.2,58.6,30.01,NNW,338,0.0,-999.0,85,0.00,,,0.03,0,Wunderground v.1.15,2013-01-14 16:46:00,
2013-01-15 03:49:00,63.2,58.6,30.01,NNW,338,0.0,-999.0,85,0.00,,,0.03,0,Wunderground v.1.15,2013-01-14 16:49:00,
2013-01-15 03:51:00,63.2,58.6,30.01,NNW,338,0.0,-999.0,85,0.00,,,0.03,0,Wunderground v.1.15,2013-01-14 16:51:00,
2013-01-15 03:54:00,63.2,58.6,30.01,NNW,338,0.0,-999.0,85,0.00,,,0.03,0,Wunderground v.1.15,2013-01-14 16:54:00,
2013-01-15 03:56:00,63.2,58.6,30.01,NNW,338,0.0,-999.0,85,0.00,,,0.03,0,Wunderground v.1.15,2013-01-14 16:56:00,
2013-01-15 03:59:00,63.2,58.6,30.01,NNW,338,0.0,-999.0,85,0.00,,,0.03,0,Wunderground v.1.15,2013-01-14 16:59:00,
2013-01-15 04:01:00,63.2,58.6,30.01,NNW,338,0.0,-999.0,85,0.00,,,0.03,0,Wunderground v.1.15,2013-01-14 17:01:00,
2013-01-15 04:04:00,63.2,58.6,30.01,NNW,338,0.0,-999.0,85,0.00,,,0.03,0,Wunderground v.1.15,2013-01-14 17:04:00,
2013-01-15 04:06:00,63.2,58.6,30.01,NNW,338,0.0,-999.0,85,0.00,,,0.03,0,Wunderground v.1.15,2013-01-14 17:06:00,
2013-01-15 04:09:00,63.2,58.6,30.01,NNW,338,0.0,-999.0,85,0.00,,,0.03,0,Wunderground v.1.15,2013-01-14 17:09:00,
2013-01-15 04:11:00,63.2,58.6,30.01,NNW,338,0.0,-999.0,85,0.00,,,0.03,0,Wunderground v.1.15,2013-01-14 17:11:00,
2013-01-15 04:14:00,63.2,58.6,30.01,NNW,338,0.0,-999.0,85,0.00,,,0.03,0,Wunderground v.1.15,2013-01-14 17:14:00,
2013-01-15 04:16:00,63.1,58.8,30.01,N/A,-737280,0.0,-999.0,86,0.00,,,0.03,0,Wunderground v.1.15,2013-01-14 17:16:00,
2013-01-15 04:19:00,63.1,58.8,30.01,N/A,-737280,0.0,-999.0,86,0.00,,,0.03,0,Wunderground v.1.15,2013-01-14 17:19:00,
2013-01-15 04:21:00,63.1,58.8,30.01,N/A,-737280,0.0,-999.0,86,0.00,,,0.03,0,Wunderground v.1.15,2013-01-14 17:21:00,
2013-01-15 04:24:00,63.1,58.8,30.01,N/A,-737280,0.0,-999.0,86,0.00,,,0.03,0,Wunderground v.1.15,2013-01-14 17:24:00,
2013-01-15 04:26:00,63.1,58.8,30.01,N/A,-737280,0.0,-999.0,86,0.00,,,0.03,0,Wunderground v.1.15,2013-01-14 17:26:00,
2013-01-15 04:29:00,63.1,58.8,30.01,N/A,-737280,0.0,-999.0,86,0.00,,,0.03,0,Wunderground v.1.15,2013-01-14 17:29:00,
2013-01-15 04:31:00,63.1,58.8,30.01,N/A,-737280,0.0,-999.0,86,0.00,,,0.03,0,Wunderground v.1.15,2013-01-14 17:31:00,
2013-01-15 04:34:00,63.1,58.8,30.01,N/A,-737280,0.0,-999.0,86,0.00,,,0.03,0,Wunderground v.1.15,2013-01-14 17:34:00,
2013-01-15 04:36:00,63.1,58.8,30.01,N/A,-737280,0.0,-999.0,86,0.00,,,0.03,0,Wunderground v.1.15,2013-01-14 17:36:00,
2013-01-15 04:39:00,63.1,58.8,30.01,N/A,-737280,0.0,-999.0,86,0.00,,,0.03,0,Wunderground v.1.15,2013-01-14 17:39:00,
2013-01-15 04:41:00,63.1,58.8,30.01,N/A,-737280,0.0,-999.0,86,0.00,,,0.03,0,Wunderground v.1.15,2013-01-14 17:41:00,
2013-01-15 04:44:00,63.1,58.8,30.01,N/A,-737280,0.0,-999.0,86,0.00,,,0.03,0,Wunderground v.1.15,2013-01-14 17:44:00,
2013-01-15 04:46:00,62.7,57.8,30.02,SSW,203,0.0,-999.0,84,0.00,,,0.03,0,Wunderground v.1.15,2013-01-14 17:46:00,
2013-01-15 04:49:00,62.7,57.8,30.02,SSW,203,0.0,-999.0,84,0.00,,,0.03,0,Wunderground v.1.15,2013-01-14 17:49:00,
2013-01-15 04:51:00,62.7,57.8,30.02,SSW,203,0.0,-999.0,84,0.00,,,0.03,0,Wunderground v.1.15,2013-01-14 17:51:00,
2013-01-15 04:54:00,62.7,57.8,30.02,SSW,203,0.0,-999.0,84,0.00,,,0.03,0,Wunderground v.1.15,2013-01-14 17:54:00,
2013-01-15 04:56:00,62.7,57.8,30.02,SSW,203,0.0,-999.0,84,0.00,,,0.03,0,Wunderground v.1.15,2013-01-14 17:56:00,
2013-01-15 04:59:00,62.7,57.8,30.02,SSW,203,0.0,-999.0,84,0.00,,,0.03,0,Wunderground v.1.15,2013-01-14 17:59:00,
2013-01-15 05:01:00,62.7,57.8,30.02,SSW,203,0.0,-999.0,84,0.00,,,0.03,0,Wunderground v.1.15,2013-01-14 18:01:00,
2013-01-15 05:04:00,62.7,57.8,30.02,SSW,203,0.0,-999.0,84,0.00,,,0.03,0,Wunderground v.1.15,2013-01-14 18:04:00,
2013-01-15 05:06:00,62.7,57.8,30.02,SSW,203,0.0,-999.0,84,0.00,,,0.03,0,Wunderground v.1.15,2013-01-14 18:06:00,
2013-01-15 05:09:00,62.7,57.8,30.02,SSW,203,0.0,-999.0,84,0.00,,,0.03,0,Wunderground v.1.15,2013-01-14 18:09:00,
2013-01-15 05:11:00,62.7,57.8,30.02,SSW,203,0.0,-999.0,84,0.00,,,0.03,0,Wunderground v.1.15,2013-01-14 18:11:00,
2013-01-15 05:14:00,62.7,57.8,30.02,SSW,203,0.0,-999.0,84,0.00,,,0.03,0,Wunderground v.1.15,2013-01-14 18:14:00,
2013-01-15 05:16:00,63.2,57.9,30.02,SW,225,0.0,-999.0,83,0.00,,,0.03,0,Wunderground v.1.15,2013-01-14 18:16:00,
2013-01-15 05:19:00,63.2,57.9,30.02,SW,225,0.0,-999.0,83,0.00,,,0.03,0,Wunderground v.1.15,2013-01-14 18:19:00,
2013-01-15 05:21:00,63.2,57.9,30.02,SW,225,0.0,-999.0,83,0.00,,,0.03,0,Wunderground v.1.15,2013-01-14 18:21:00,
2013-01-15 05:24:00,63.2,57.9,30.02,SW,225,0.0,-999.0,83,0.00,,,0.03,0,Wunderground v.1.15,2013-01-14 18:24:00,
2013-01-15 05:26:00,63.2,57.9,30.02,SW,225,0.0,-999.0,83,0.00,,,0.03,0,Wunderground v.1.15,2013-01-14 18:26:00,
2013-01-15 05:29:00,63.2,57.9,30.02,SW,225,0.0,-999.0,83,0.00,,,0.03,0,Wunderground v.1.15,2013-01-14 18:29:00,
2013-01-15 05:31:00,63.2,57.9,30.02,SW,225,0.0,-999.0,83,0.00,,,0.03,0,Wunderground v.1.15,2013-01-14 18:31:00,
2013-01-15 05:34:00,63.2,57.9,30.02,SW,225,0.0,-999.0,83,0.00,,,0.03,0,Wunderground v.1.15,2013-01-14 18:34:00,
2013-01-15 05:36:00,63.2,57.9,30.02,SW,225,0.0,-999.0,83,0.00,,,0.03,0,Wunderground v.1.15,2013-01-14 18:36:00,
2013-01-15 05:39:00,63.2,57.9,30.02,SW,225,0.0,-999.0,83,0.00,,,0.03,0,Wunderground v.1.15,2013-01-14 18:39:00,
2013-01-15 05:41:00,63.2,57.9,30.02,SW,225,0.0,-999.0,83,0.00,,,0.03,0,Wunderground v.1.15,2013-01-14 18:41:00,
2013-01-15 05:44:00,63.2,57.9,30.02,SW,225,0.0,-999.0,83,0.00,,,0.03,0,Wunderground v.1.15,2013-01-14 18:44:00,
2013-01-15 05:46:00,63.3,57.7,30.02,SW,225,0.0,-999.0,82,0.00,,,0.03,0,Wunderground v.1.15,2013-01-14 18:46:00,
2013-01-15 05:49:00,63.3,57.7,30.02,SW,225,0.0,-999.0,82,0.00,,,0.03,0,Wunderground v.1.15,2013-01-14 18:49:00,
2013-01-15 05:51:00,63.3,57.7,30.02,SW,225,0.0,-999.0,82,0.00,,,0.03,0,Wunderground v.1.15,2013-01-14 18:51:00,
2013-01-15 05:54:00,63.3,57.7,30.02,SW,225,0.0,-999.0,82,0.00,,,0.03,0,Wunderground v.1.15,2013-01-14 18:54:00,
2013-01-15 05:56:00,63.3,57.7,30.02,SW,225,0.0,-999.0,82,0.00,,,0.03,0,Wunderground v.1.15,2013-01-14 18:56:00,
2013-01-15 05:59:00,63.3,57.7,30.02,SW,225,0.0,-999.0,82,0.00,,,0.03,0,Wunderground v.1.15,2013-01-14 18:59:00,
2013-01-15 06:01:00,63.3,57.7,30.02,SW,225,0.0,-999.0,82,0.00,,,0.03,0,Wunderground v.1.15,2013-01-14 19:01:00,
2013-01-15 06:04:00,63.3,57.7,30.02,SW,225,0.0,-999.0,82,0.00,,,0.03,0,Wunderground v.1.15,2013-01-14 19:04:00,
2013-01-15 06:06:00,63.3,57.7,30.02,SW,225,0.0,-999.0,82,0.00,,,0.03,0,Wunderground v.1.15,2013-01-14 19:06:00,
2013-01-15 06:09:00,63.3,57.7,30.02,SW,225,0.0,-999.0,82,0.00,,,0.03,0,Wunderground v.1.15,2013-01-14 19:09:00,
2013-01-15 06:11:00,63.3,57.7,30.02,SW,225,0.0,-999.0,82,0.00,,,0.03,0,Wunderground v.1.15,2013-01-14 19:11:00,
2013-01-15 06:14:00,63.3,57.7,30.02,SW,225,0.0,-999.0,82,0.00,,,0.03,0,Wunderground v.1.15,2013-01-14 19:14:00,
2013-01-15 06:16:00,63.5,59.2,30.02,SW,225,1.0,-999.0,86,0.00,,,0.03,16,Wunderground v.1.15,2013-01-14 19:16:00,
2013-01-15 06:19:00,63.5,59.2,30.02,SW,225,1.0,-999.0,86,0.00,,,0.03,16,Wunderground v.1.15,2013-01-14 19:19:00,
2013-01-15 06:21:00,63.5,59.2,30.02,SW,225,1.0,-999.0,86,0.00,,,0.03,16,Wunderground v.1.15,2013-01-14 19:21:00,
2013-01-15 06:24:00,63.5,59.2,30.02,SW,225,1.0,-999.0,86,0.00,,,0.03,16,Wunderground v.1.15,2013-01-14 19:24:00,
2013-01-15 06:26:00,63.5,59.2,30.02,SW,225,1.0,-999.0,86,0.00,,,0.03,16,Wunderground v.1.15,2013-01-14 19:26:00,
2013-01-15 06:29:00,63.5,59.2,30.02,SW,225,1.0,-999.0,86,0.00,,,0.03,16,Wunderground v.1.15,2013-01-14 19:29:00,
2013-01-15 06:31:00,63.5,59.2,30.02,SW,225,1.0,-999.0,86,0.00,,,0.03,16,Wunderground v.1.15,2013-01-14 19:31:00,
2013-01-15 06:34:00,63.5,59.2,30.02,SW,225,1.0,-999.0,86,0.00,,,0.03,16,Wunderground v.1.15,2013-01-14 19:34:00,
2013-01-15 06:36:00,63.5,59.2,30.02,SW,225,1.0,-999.0,86,0.00,,,0.03,16,Wunderground v.1.15,2013-01-14 19:36:00,
2013-01-15 06:39:00,63.5,59.2,30.02,SW,225,1.0,-999.0,86,0.00,,,0.03,16,Wunderground v.1.15,2013-01-14 19:39:00,
2013-01-15 06:41:00,63.5,59.2,30.02,SW,225,1.0,-999.0,86,0.00,,,0.03,16,Wunderground v.1.15,2013-01-14 19:41:00,
2013-01-15 06:44:00,63.5,59.2,30.02,SW,225,1.0,-999.0,86,0.00,,,0.03,16,Wunderground v.1.15,2013-01-14 19:44:00,
2013-01-15 06:46:00,63.2,59.6,30.03,WNW,293,1.0,-999.0,88,0.00,,,0.03,32,Wunderground v.1.15,2013-01-14 19:46:00,
2013-01-15 06:49:00,63.2,59.6,30.03,WNW,293,1.0,-999.0,88,0.00,,,0.03,32,Wunderground v.1.15,2013-01-14 19:49:00,
2013-01-15 06:51:00,63.2,59.6,30.03,WNW,293,1.0,-999.0,88,0.00,,,0.03,32,Wunderground v.1.15,2013-01-14 19:51:00,
2013-01-15 06:54:00,63.2,59.6,30.03,WNW,293,1.0,-999.0,88,0.00,,,0.03,32,Wunderground v.1.15,2013-01-14 19:54:00,
2013-01-15 06:56:00,63.2,59.6,30.03,WNW,293,1.0,-999.0,88,0.00,,,0.03,32,Wunderground v.1.15,2013-01-14 19:56:00,
2013-01-15 06:59:00,63.2,59.6,30.03,WNW,293,1.0,-999.0,88,0.00,,,0.03,32,Wunderground v.1.15,2013-01-14 19:59:00,
2013-01-15 07:01:00,63.2,59.6,30.03,WNW,293,1.0,-999.0,88,0.00,,,0.03,32,Wunderground v.1.15,2013-01-14 20:01:00,
2013-01-15 07:04:00,63.2,59.6,30.03,WNW,293,1.0,-999.0,88,0.00,,,0.03,32,Wunderground v.1.15,2013-01-14 20:04:00,
2013-01-15 07:06:00,63.2,59.6,30.03,WNW,293,1.0,-999.0,88,0.00,,,0.03,32,Wunderground v.1.15,2013-01-14 20:06:00,
2013-01-15 07:09:00,63.2,59.6,30.03,WNW,293,1.0,-999.0,88,0.00,,,0.03,32,Wunderground v.1.15,2013-01-14 20:09:00,
2013-01-15 07:11:00,63.2,59.6,30.03,WNW,293,1.0,-999.0,88,0.00,,,0.03,32,Wunderground v.1.15,2013-01-14 20:11:00,
2013-01-15 07:14:00,63.2,59.6,30.03,WNW,293,1.0,-999.0,88,0.00,,,0.03,32,Wunderground v.1.15,2013-01-14 20:14:00,
2013-01-15 07:16:00,63.3,59.4,30.03,NW,315,0.0,-999.0,87,0.00,,,0.03,86,Wunderground v.1.15,2013-01-14 20:16:00,
2013-01-15 07:19:00,63.3,59.4,30.03,NW,315,0.0,-999.0,87,0.00,,,0.03,86,Wunderground v.1.15,2013-01-14 20:19:00,
2013-01-15 07:21:00,63.3,59.4,30.03,NW,315,0.0,-999.0,87,0.00,,,0.03,86,Wunderground v.1.15,2013-01-14 20:21:00,
2013-01-15 07:24:00,63.3,59.4,30.03,NW,315,0.0,-999.0,87,0.00,,,0.03,86,Wunderground v.1.15,2013-01-14 20:24:00,
2013-01-15 07:25:00,63.7,59.8,30.03,NW,306,0.0,9.0,87,0.00,,,0.00,113,Wunderground v.1.15,2013-01-14 20:25:00,
2013-01-15 07:26:00,63.3,59.4,30.03,NW,315,0.0,-999.0,87,0.00,,,0.03,86,Wunderground v.1.15,2013-01-14 20:26:00,
2013-01-15 07:29:00,63.3,59.4,30.03,NW,315,0.0,-999.0,87,0.00,,,0.03,86,Wunderground v.1.15,2013-01-14 20:29:00,
2013-01-15 07:31:00,63.3,59.4,30.03,NW,315,0.0,-999.0,87,0.00,,,0.03,86,Wunderground v.1.15,2013-01-14 20:31:00,
2013-01-15 07:34:00,64.0,59.4,30.03,NW,306,1.0,1.0,85,0.00,,,0.00,148,Wunderground v.1.15,2013-01-14 20:34:00,
2013-01-15 07:36:00,63.3,59.4,30.03,NW,315,0.0,-999.0,87,0.00,,,0.03,86,Wunderground v.1.15,2013-01-14 20:36:00,
2013-01-15 07:39:00,63.3,59.4,30.03,NW,315,0.0,-999.0,87,0.00,,,0.03,86,Wunderground v.1.15,2013-01-14 20:39:00,
2013-01-15 07:41:00,63.3,59.4,30.03,NW,315,0.0,-999.0,87,0.00,,,0.03,86,Wunderground v.1.15,2013-01-14 20:41:00,
2013-01-15 07:44:00,64.5,59.2,30.04,West,273,1.0,1.0,83,0.00,,,0.00,114,Wunderground v.1.15,2013-01-14 20:44:00,
2013-01-15 07:46:00,64.7,58.0,30.03,SW,225,1.0,-999.0,79,0.00,,,0.03,144,Wunderground v.1.15,2013-01-14 20:46:00,
2013-01-15 07:49:00,64.9,59.6,30.03,SW,220,1.0,1.0,83,0.00,,,0.00,148,Wunderground v.1.15,2013-01-14 20:49:00,
2013-01-15 07:51:00,64.7,58.0,30.03,SW,225,1.0,-999.0,79,0.00,,,0.03,144,Wunderground v.1.15,2013-01-14 20:51:00,
2013-01-15 07:54:00,65.5,59.5,30.03,WSW,237,1.0,1.0,81,0.00,,,0.00,139,Wunderground v.1.15,2013-01-14 20:54:00,
2013-01-15 07:56:00,64.7,58.0,30.03,SW,225,1.0,-999.0,79,0.00,,,0.03,144,Wunderground v.1.15,2013-01-14 20:56:00,
2013-01-15 07:59:00,65.9,59.2,30.03,West,261,1.0,1.0,79,0.00,,,0.00,130,Wunderground v.1.15,2013-01-14 20:59:00,
2013-01-15 08:01:00,64.7,58.0,30.03,SW,225,1.0,-999.0,79,0.00,,,0.03,144,Wunderground v.1.15,2013-01-14 21:01:00,
2013-01-15 08:04:00,64.7,58.0,30.03,SW,225,1.0,-999.0,79,0.00,,,0.03,144,Wunderground v.1.15,2013-01-14 21:04:00,
2013-01-15 08:06:00,64.7,58.0,30.03,SW,225,1.0,-999.0,79,0.00,,,0.03,144,Wunderground v.1.15,2013-01-14 21:06:00,
2013-01-15 08:09:00,66.7,59.3,30.04,West,267,1.0,1.0,77,0.00,,,0.00,271,Wunderground v.1.15,2013-01-14 21:09:00,
2013-01-15 08:11:00,64.7,58.0,30.03,SW,225,1.0,-999.0,79,0.00,,,0.03,144,Wunderground v.1.15,2013-01-14 21:11:00,
2013-01-15 08:14:00,67.6,60.1,30.04,SW,227,1.0,1.0,77,0.00,,,0.00,264,Wunderground v.1.15,2013-01-14 21:14:00,
2013-01-15 08:16:00,67.5,58.5,30.03,SW,225,1.0,-999.0,73,0.00,,,0.03,305,Wunderground v.1.15,2013-01-14 21:16:00,
2013-01-15 08:19:00,68.3,60.1,30.03,SSW,197,1.0,1.0,75,0.00,,,0.00,471,Wunderground v.1.15,2013-01-14 21:19:00,
2013-01-15 08:21:00,67.5,58.5,30.03,SW,225,1.0,-999.0,73,0.00,,,0.03,305,Wunderground v.1.15,2013-01-14 21:21:00,
2013-01-15 08:24:00,69.0,59.6,30.03,SW,224,2.0,3.0,72,0.00,,,0.00,339,Wunderground v.1.15,2013-01-14 21:24:00,
2013-01-15 08:26:00,67.5,58.5,30.03,SW,225,1.0,-999.0,73,0.00,,,0.03,305,Wunderground v.1.15,2013-01-14 21:26:00,
2013-01-15 08:29:00,67.5,58.5,30.03,SW,225,1.0,-999.0,73,0.00,,,0.03,305,Wunderground v.1.15,2013-01-14 21:29:00,
2013-01-15 08:31:00,67.5,58.5,30.03,SW,225,1.0,-999.0,73,0.00,,,0.03,305,Wunderground v.1.15,2013-01-14 21:31:00,
2013-01-15 08:34:00,69.2,59.4,30.03,SSW,192,2.0,2.0,71,0.00,,,0.00,343,Wunderground v.1.15,2013-01-14 21:34:00,
2013-01-15 08:36:00,67.5,58.5,30.03,SW,225,1.0,-999.0,73,0.00,,,0.03,305,Wunderground v.1.15,2013-01-14 21:36:00,
2013-01-15 08:39:00,67.5,58.5,30.03,SW,225,1.0,-999.0,73,0.00,,,0.03,305,Wunderground v.1.15,2013-01-14 21:39:00,
2013-01-15 08:41:00,67.5,58.5,30.03,SW,225,1.0,-999.0,73,0.00,,,0.03,305,Wunderground v.1.15,2013-01-14 21:41:00,
2013-01-15 08:44:00,70.1,59.9,30.03,SSW,198,1.0,1.0,70,0.00,,,0.00,322,Wunderground v.1.15,2013-01-14 21:44:00,
2013-01-15 08:46:00,69.8,59.2,30.03,SSW,203,1.0,-999.0,69,0.00,,,0.03,318,Wunderground v.1.15,2013-01-14 21:46:00,
2013-01-15 08:49:00,69.8,59.6,30.03,SSE,153,1.0,1.0,70,0.00,,,0.00,322,Wunderground v.1.15,2013-01-14 21:49:00,
2013-01-15 08:51:00,69.8,59.2,30.03,SSW,203,1.0,-999.0,69,0.00,,,0.03,318,Wunderground v.1.15,2013-01-14 21:51:00,
2013-01-15 08:54:00,70.1,59.5,30.03,West,278,1.0,1.0,69,0.00,,,0.00,350,Wunderground v.1.15,2013-01-14 21:54:00,
2013-01-15 08:56:00,69.8,59.2,30.03,SSW,203,1.0,-999.0,69,0.00,,,0.03,318,Wunderground v.1.15,2013-01-14 21:56:00,
2013-01-15 08:59:00,70.4,59.7,30.03,SW,215,1.0,2.0,69,0.00,,,0.00,318,Wunderground v.1.15,2013-01-14 21:59:00,
2013-01-15 09:01:00,69.8,59.2,30.03,SSW,203,1.0,-999.0,69,0.00,,,0.03,318,Wunderground v.1.15,2013-01-14 22:01:00,
2013-01-15 09:04:00,69.8,59.2,30.03,SSW,203,1.0,-999.0,69,0.00,,,0.03,318,Wunderground v.1.15,2013-01-14 22:04:00,
2013-01-15 09:06:00,69.8,59.2,30.03,SSW,203,1.0,-999.0,69,0.00,,,0.03,318,Wunderground v.1.15,2013-01-14 22:06:00,
2013-01-15 09:09:00,71.4,60.3,30.03,SSW,213,1.0,1.0,68,0.00,,,0.00,492,Wunderground v.1.15,2013-01-14 22:09:00,
2013-01-15 09:11:00,69.8,59.2,30.03,SSW,203,1.0,-999.0,69,0.00,,,0.03,318,Wunderground v.1.15,2013-01-14 22:11:00,
2013-01-15 09:14:00,70.6,59.9,30.02,WNW,284,1.0,1.0,69,0.00,,,0.00,487,Wunderground v.1.15,2013-01-14 22:14:00,
2013-01-15 09:16:00,71.6,59.2,30.02,NW,315,1.0,-999.0,65,0.00,,,0.03,477,Wunderground v.1.15,2013-01-14 22:16:00,
2013-01-15 09:19:00,72.1,60.5,30.02,WNW,296,2.0,2.0,67,0.00,,,0.00,610,Wunderground v.1.15,2013-01-14 22:19:00,
2013-01-15 09:21:00,71.6,59.2,30.02,NW,315,1.0,-999.0,65,0.00,,,0.03,477,Wunderground v.1.15,2013-01-14 22:21:00,
2013-01-15 09:24:00,71.6,59.2,30.02,NW,315,1.0,-999.0,65,0.00,,,0.03,477,Wunderground v.1.15,2013-01-14 22:24:00,
2013-01-15 09:26:00,71.6,59.2,30.02,NW,315,1.0,-999.0,65,0.00,,,0.03,477,Wunderground v.1.15,2013-01-14 22:26:00,
2013-01-15 09:29:00,73.0,60.5,30.02,NW,309,1.0,1.0,65,0.00,,,0.00,543,Wunderground v.1.15,2013-01-14 22:29:00,
2013-01-15 09:31:00,71.6,59.2,30.02,NW,315,1.0,-999.0,65,0.00,,,0.03,477,Wunderground v.1.15,2013-01-14 22:31:00,
2013-01-15 09:34:00,73.5,60.6,30.02,SW,233,1.0,2.0,64,0.00,,,0.00,306,Wunderground v.1.15,2013-01-14 22:34:00,
2013-01-15 09:36:00,71.6,59.2,30.02,NW,315,1.0,-999.0,65,0.00,,,0.03,477,Wunderground v.1.15,2013-01-14 22:36:00,
2013-01-15 09:39:00,71.6,59.2,30.02,NW,315,1.0,-999.0,65,0.00,,,0.03,477,Wunderground v.1.15,2013-01-14 22:39:00,
2013-01-15 09:41:00,71.6,59.2,30.02,NW,315,1.0,-999.0,65,0.00,,,0.03,477,Wunderground v.1.15,2013-01-14 22:41:00,
2013-01-15 09:44:00,71.3,59.4,30.02,West,262,2.0,2.0,66,0.00,,,0.00,206,Wunderground v.1.15,2013-01-14 22:44:00,
2013-01-15 09:46:00,72.0,61.3,30.02,WSW,248,2.0,-999.0,69,0.00,,,0.03,279,Wunderground v.1.15,2013-01-14 22:46:00,
2013-01-15 09:49:00,71.2,60.9,30.02,WNW,284,2.0,2.0,70,0.00,,,0.00,243,Wunderground v.1.15,2013-01-14 22:49:00,
2013-01-15 09:51:00,72.0,61.3,30.02,WSW,248,2.0,-999.0,69,0.00,,,0.03,279,Wunderground v.1.15,2013-01-14 22:51:00,
2013-01-15 09:54:00,71.3,60.6,30.02,WSW,244,2.0,2.0,69,0.00,,,0.00,274,Wunderground v.1.15,2013-01-14 22:54:00,
2013-01-15 09:56:00,72.0,61.3,30.02,WSW,248,2.0,-999.0,69,0.00,,,0.03,279,Wunderground v.1.15,2013-01-14 22:56:00,
2013-01-15 09:59:00,72.0,61.3,30.02,WSW,248,2.0,-999.0,69,0.00,,,0.03,279,Wunderground v.1.15,2013-01-14 22:59:00,
2013-01-15 10:01:00,72.0,61.3,30.02,WSW,248,2.0,-999.0,69,0.00,,,0.03,279,Wunderground v.1.15,2013-01-14 23:01:00,
2013-01-15 10:04:00,71.6,61.3,30.01,WSW,252,2.0,2.0,70,0.00,,,0.00,573,Wunderground v.1.15,2013-01-14 23:04:00,
2013-01-15 10:06:00,72.0,61.3,30.02,WSW,248,2.0,-999.0,69,0.00,,,0.03,279,Wunderground v.1.15,2013-01-14 23:06:00,
2013-01-15 10:09:00,72.6,60.6,30.01,West,268,3.0,3.0,66,0.00,,,0.00,837,Wunderground v.1.15,2013-01-14 23:09:00,
2013-01-15 10:11:00,72.0,61.3,30.02,WSW,248,2.0,-999.0,69,0.00,,,0.03,279,Wunderground v.1.15,2013-01-14 23:11:00,
2013-01-15 10:14:00,74.8,58.5,30.01,NNE,30,2.0,2.0,57,0.00,,,0.00,837,Wunderground v.1.15,2013-01-14 23:14:00,
2013-01-15 10:16:00,73.7,55.5,30.01,NE,45,2.0,-999.0,53,0.00,,,0.03,437,Wunderground v.1.15,2013-01-14 23:16:00,
2013-01-15 10:19:00,75.4,57.6,30.01,ENE,75,2.0,2.0,54,0.00,,,0.00,332,Wunderground v.1.15,2013-01-14 23:19:00,
2013-01-15 10:21:00,73.7,55.5,30.01,NE,45,2.0,-999.0,53,0.00,,,0.03,437,Wunderground v.1.15,2013-01-14 23:21:00,
2013-01-15 10:24:00,73.7,55.5,30.01,NE,45,2.0,-999.0,53,0.00,,,0.03,437,Wunderground v.1.15,2013-01-14 23:24:00,
2013-01-15 10:26:00,73.7,55.5,30.01,NE,45,2.0,-999.0,53,0.00,,,0.03,437,Wunderground v.1.15,2013-01-14 23:26:00,
2013-01-15 10:29:00,74.2,56.0,30.01,NE,45,3.0,3.0,53,0.00,,,0.00,269,Wunderground v.1.15,2013-01-14 23:29:00,
2013-01-15 10:31:00,73.7,55.5,30.01,NE,45,2.0,-999.0,53,0.00,,,0.03,437,Wunderground v.1.15,2013-01-14 23:31:00,
2013-01-15 10:34:00,73.7,55.5,30.01,NE,45,2.0,-999.0,53,0.00,,,0.03,437,Wunderground v.1.15,2013-01-14 23:34:00,
2013-01-15 10:36:00,73.7,55.5,30.01,NE,45,2.0,-999.0,53,0.00,,,0.03,437,Wunderground v.1.15,2013-01-14 23:36:00,
2013-01-15 10:39:00,74.0,56.3,30.01,NNE,15,1.0,3.0,54,0.00,,,0.00,325,Wunderground v.1.15,2013-01-14 23:39:00,
2013-01-15 10:41:00,73.7,55.5,30.01,NE,45,2.0,-999.0,53,0.00,,,0.03,437,Wunderground v.1.15,2013-01-14 23:41:00,
2013-01-15 10:44:00,74.4,57.2,30.01,West,267,1.0,1.0,55,0.00,,,0.00,401,Wunderground v.1.15,2013-01-14 23:44:00,
2013-01-15 10:46:00,75.2,55.3,30.01,NE,45,2.0,-999.0,50,0.00,,,0.03,686,Wunderground v.1.15,2013-01-14 23:46:00,
2013-01-15 10:49:00,76.3,57.4,30.01,NNE,24,2.0,3.0,52,0.00,,,0.00,1051,Wunderground v.1.15,2013-01-14 23:49:00,
2013-01-15 10:51:00,75.2,55.3,30.01,NE,45,2.0,-999.0,50,0.00,,,0.03,686,Wunderground v.1.15,2013-01-14 23:51:00,
2013-01-15 10:54:00,77.0,57.5,30.01,South,171,2.0,4.0,51,0.00,,,0.00,1013,Wunderground v.1.15,2013-01-14 23:54:00,
2013-01-15 10:56:00,75.2,55.3,30.01,NE,45,2.0,-999.0,50,0.00,,,0.03,686,Wunderground v.1.15,2013-01-14 23:56:00,
2013-01-15 10:59:00,75.2,55.3,30.01,NE,45,2.0,-999.0,50,0.00,,,0.03,686,Wunderground v.1.15,2013-01-14 23:59:00,
2013-01-15 11:01:00,75.2,55.3,30.01,NE,45,2.0,-999.0,50,0.00,,,0.03,686,Wunderground v.1.15,2013-01-15 00:01:00,
2013-01-15 11:04:00,76.7,57.7,30.01,NNE,24,3.0,3.0,52,0.00,,,0.00,1088,Wunderground v.1.15,2013-01-15 00:04:00,
2013-01-15 11:06:00,75.2,55.3,30.01,NE,45,2.0,-999.0,50,0.00,,,0.03,686,Wunderground v.1.15,2013-01-15 00:06:00,
2013-01-15 11:09:00,78.2,57.5,30.00,ENE,69,3.0,5.0,49,0.00,,,0.00,1099,Wunderground v.1.15,2013-01-15 00:09:00,
2013-01-15 11:11:00,75.2,55.3,30.01,NE,45,2.0,-999.0,50,0.00,,,0.03,686,Wunderground v.1.15,2013-01-15 00:11:00,
2013-01-15 11:14:00,78.1,58.5,30.00,ENE,58,3.0,3.0,51,0.00,,,0.00,1048,Wunderground v.1.15,2013-01-15 00:14:00,
2013-01-15 11:16:00,77.8,57.7,30.00,NE,45,3.0,-999.0,50,0.00,,,0.03,1070,Wunderground v.1.15,2013-01-15 00:16:00,
2013-01-15 11:19:00,77.8,57.7,30.00,NE,45,3.0,-999.0,50,0.00,,,0.03,1070,Wunderground v.1.15,2013-01-15 00:19:00,
2013-01-15 11:21:00,77.8,57.7,30.00,NE,45,3.0,-999.0,50,0.00,,,0.03,1070,Wunderground v.1.15,2013-01-15 00:21:00,
2013-01-15 11:24:00,78.0,56.1,30.01,NE,52,2.0,7.0,47,0.00,,,0.00,1069,Wunderground v.1.15,2013-01-15 00:24:00,
2013-01-15 11:26:00,77.8,57.7,30.00,NE,45,3.0,-999.0,50,0.00,,,0.03,1070,Wunderground v.1.15,2013-01-15 00:26:00,
2013-01-15 11:29:00,78.3,58.1,30.00,North,5,3.0,7.0,50,0.00,,,0.00,1158,Wunderground v.1.15,2013-01-15 00:29:00,
2013-01-15 11:31:00,77.8,57.7,30.00,NE,45,3.0,-999.0,50,0.00,,,0.03,1070,Wunderground v.1.15,2013-01-15 00:31:00,
2013-01-15 11:34:00,77.8,57.7,30.00,NE,45,3.0,-999.0,50,0.00,,,0.03,1070,Wunderground v.1.15,2013-01-15 00:34:00,
2013-01-15 11:36:00,77.8,57.7,30.00,NE,45,3.0,-999.0,50,0.00,,,0.03,1070,Wunderground v.1.15,2013-01-15 00:36:00,
2013-01-15 11:39:00,77.7,57.0,30.00,SSE,159,3.0,3.0,49,0.00,,,0.00,817,Wunderground v.1.15,2013-01-15 00:39:00,
2013-01-15 11:41:00,77.8,57.7,30.00,NE,45,3.0,-999.0,50,0.00,,,0.03,1070,Wunderground v.1.15,2013-01-15 00:41:00,
2013-01-15 11:44:00,77.5,57.9,30.00,NE,38,2.0,5.0,51,0.00,,,0.00,601,Wunderground v.1.15,2013-01-15 00:44:00,
2013-01-15 11:46:00,77.4,58.9,30.00,NE,45,3.0,-999.0,53,0.00,,,0.03,721,Wunderground v.1.15,2013-01-15 00:46:00,
2013-01-15 11:49:00,77.0,56.9,30.00,East,82,3.0,6.0,50,0.00,,,0.00,589,Wunderground v.1.15,2013-01-15 00:49:00,
2013-01-15 11:51:00,77.4,58.9,30.00,NE,45,3.0,-999.0,53,0.00,,,0.03,721,Wunderground v.1.15,2013-01-15 00:51:00,
2013-01-15 11:54:00,77.4,58.9,30.00,NE,45,3.0,-999.0,53,0.00,,,0.03,721,Wunderground v.1.15,2013-01-15 00:54:00,
2013-01-15 11:56:00,77.4,58.9,30.00,NE,45,3.0,-999.0,53,0.00,,,0.03,721,Wunderground v.1.15,2013-01-15 00:56:00,
2013-01-15 11:59:00,75.6,57.3,30.00,NNW,343,3.0,4.0,53,0.00,,,0.00,645,Wunderground v.1.15,2013-01-15 00:59:00,
2013-01-15 12:01:00,77.4,58.9,30.00,NE,45,3.0,-999.0,53,0.00,,,0.03,721,Wunderground v.1.15,2013-01-15 01:01:00,
2013-01-15 12:04:00,76.1,58.8,30.00,North,5,3.0,3.0,55,0.00,,,0.00,478,Wunderground v.1.15,2013-01-15 01:04:00,
2013-01-15 12:06:00,77.4,58.9,30.00,NE,45,3.0,-999.0,53,0.00,,,0.03,721,Wunderground v.1.15,2013-01-15 01:06:00,
2013-01-15 12:09:00,76.1,58.2,30.00,East,82,2.0,3.0,54,0.00,,,0.00,496,Wunderground v.1.15,2013-01-15 01:09:00,
2013-01-15 12:11:00,77.4,58.9,30.00,NE,45,3.0,-999.0,53,0.00,,,0.03,721,Wunderground v.1.15,2013-01-15 01:11:00,
2013-01-15 12:14:00,77.8,59.3,29.99,NE,55,2.0,2.0,53,0.00,,,0.00,830,Wunderground v.1.15,2013-01-15 01:14:00,
2013-01-15 12:16:00,77.3,58.3,29.98,NE,45,3.0,-999.0,52,0.00,,,0.03,749,Wunderground v.1.15,2013-01-15 01:16:00,
2013-01-15 12:19:00,77.3,58.3,29.98,NE,45,3.0,-999.0,52,0.00,,,0.03,749,Wunderground v.1.15,2013-01-15 01:19:00,
2013-01-15 12:21:00,77.3,58.3,29.98,NE,45,3.0,-999.0,52,0.00,,,0.03,749,Wunderground v.1.15,2013-01-15 01:21:00,
2013-01-15 12:24:00,78.5,60.5,29.99,SW,216,3.0,3.0,54,0.00,,,0.00,520,Wunderground v.1.15,2013-01-15 01:24:00,
2013-01-15 12:26:00,77.3,58.3,29.98,NE,45,3.0,-999.0,52,0.00,,,0.03,749,Wunderground v.1.15,2013-01-15 01:26:00,
2013-01-15 12:29:00,77.4,58.4,29.98,NNE,20,3.0,6.0,52,0.00,,,0.00,745,Wunderground v.1.15,2013-01-15 01:29:00,
2013-01-15 12:31:00,77.3,58.3,29.98,NE,45,3.0,-999.0,52,0.00,,,0.03,749,Wunderground v.1.15,2013-01-15 01:31:00,
2013-01-15 12:34:00,77.3,58.3,29.98,NE,45,3.0,-999.0,52,0.00,,,0.03,749,Wunderground v.1.15,2013-01-15 01:34:00,
2013-01-15 12:36:00,77.3,58.3,29.98,NE,45,3.0,-999.0,52,0.00,,,0.03,749,Wunderground v.1.15,2013-01-15 01:36:00,
2013-01-15 12:39:00,77.4,58.4,29.98,NE,37,4.0,5.0,52,0.00,,,0.00,526,Wunderground v.1.15,2013-01-15 01:39:00,
2013-01-15 12:41:00,77.3,58.3,29.98,NE,45,3.0,-999.0,52,0.00,,,0.03,749,Wunderground v.1.15,2013-01-15 01:41:00,
2013-01-15 12:44:00,77.3,58.3,29.98,NE,45,3.0,-999.0,52,0.00,,,0.03,749,Wunderground v.1.15,2013-01-15 01:44:00,
2013-01-15 12:46:00,77.4,60.0,29.97,NE,45,4.0,-999.0,55,0.00,,,0.03,722,Wunderground v.1.15,2013-01-15 01:46:00,
2013-01-15 12:49:00,78.0,60.5,29.97,NE,55,4.0,6.0,55,0.00,,,0.00,766,Wunderground v.1.15,2013-01-15 01:49:00,
2013-01-15 12:51:00,77.4,60.0,29.97,NE,45,4.0,-999.0,55,0.00,,,0.03,722,Wunderground v.1.15,2013-01-15 01:51:00,
2013-01-15 12:54:00,78.0,59.5,29.97,South,190,3.0,3.0,53,0.00,,,0.00,561,Wunderground v.1.15,2013-01-15 01:54:00,
2013-01-15 12:56:00,77.4,60.0,29.97,NE,45,4.0,-999.0,55,0.00,,,0.03,722,Wunderground v.1.15,2013-01-15 01:56:00,
2013-01-15 12:59:00,76.2,58.9,29.97,NE,49,4.0,4.0,55,0.00,,,0.00,561,Wunderground v.1.15,2013-01-15 01:59:00,
2013-01-15 13:01:00,77.4,60.0,29.97,NE,45,4.0,-999.0,55,0.00,,,0.03,722,Wunderground v.1.15,2013-01-15 02:01:00,
2013-01-15 13:04:00,77.0,60.1,29.97,ENE,74,4.0,4.0,56,0.00,,,0.00,1452,Wunderground v.1.15,2013-01-15 02:04:00,
2013-01-15 13:06:00,77.4,60.0,29.97,NE,45,4.0,-999.0,55,0.00,,,0.03,722,Wunderground v.1.15,2013-01-15 02:06:00,
2013-01-15 13:09:00,77.4,60.0,29.97,NE,45,4.0,-999.0,55,0.00,,,0.03,722,Wunderground v.1.15,2013-01-15 02:09:00,
2013-01-15 13:11:00,77.4,60.0,29.97,NE,45,4.0,-999.0,55,0.00,,,0.03,722,Wunderground v.1.15,2013-01-15 02:11:00,
2013-01-15 13:14:00,78.9,60.3,29.96,ENE,62,3.0,5.0,53,0.00,,,0.00,1111,Wunderground v.1.15,2013-01-15 02:14:00,
2013-01-15 13:16:00,78.0,60.0,29.95,NE,45,3.0,-999.0,54,0.03,,,0.03,1036,Wunderground v.1.15,2013-01-15 02:16:00,
2013-01-15 13:19:00,78.3,59.8,29.96,NNE,24,3.0,5.0,53,0.00,,,0.00,1063,Wunderground v.1.15,2013-01-15 02:19:00,
2013-01-15 13:21:00,78.0,60.0,29.95,NE,45,3.0,-999.0,54,0.03,,,0.03,1036,Wunderground v.1.15,2013-01-15 02:21:00,
2013-01-15 13:24:00,78.2,59.7,29.95,ESE,107,2.0,2.0,53,0.00,,,0.00,1048,Wunderground v.1.15,2013-01-15 02:24:00,
2013-01-15 13:26:00,78.0,60.0,29.95,NE,45,3.0,-999.0,54,0.03,,,0.03,1036,Wunderground v.1.15,2013-01-15 02:26:00,
2013-01-15 13:29:00,78.5,60.5,29.95,ESE,116,3.0,3.0,54,0.13,,,0.03,1049,Wunderground v.1.15,2013-01-15 02:29:00,
2013-01-15 13:31:00,78.0,60.0,29.95,NE,45,3.0,-999.0,54,0.03,,,0.03,1036,Wunderground v.1.15,2013-01-15 02:31:00,
2013-01-15 13:34:00,78.0,60.0,29.95,NE,45,3.0,-999.0,54,0.03,,,0.03,1036,Wunderground v.1.15,2013-01-15 02:34:00,
2013-01-15 13:36:00,78.0,60.0,29.95,NE,45,3.0,-999.0,54,0.03,,,0.03,1036,Wunderground v.1.15,2013-01-15 02:36:00,
2013-01-15 13:39:00,78.0,60.0,29.95,NNW,330,3.0,3.0,54,0.04,,,0.03,1053,Wunderground v.1.15,2013-01-15 02:39:00,
2013-01-15 13:41:00,78.0,60.0,29.95,NE,45,3.0,-999.0,54,0.03,,,0.03,1036,Wunderground v.1.15,2013-01-15 02:41:00,
2013-01-15 13:44:00,78.0,60.0,29.95,NE,45,3.0,-999.0,54,0.03,,,0.03,1036,Wunderground v.1.15,2013-01-15 02:44:00,
2013-01-15 13:46:00,79.1,61.0,29.96,ENE,68,3.0,-999.0,54,0.03,,,0.03,961,Wunderground v.1.15,2013-01-15 02:46:00,
2013-01-15 13:49:00,79.7,61.6,29.96,SW,215,3.0,3.0,54,0.00,,,0.03,1206,Wunderground v.1.15,2013-01-15 02:49:00,
2013-01-15 13:51:00,79.1,61.0,29.96,ENE,68,3.0,-999.0,54,0.03,,,0.03,961,Wunderground v.1.15,2013-01-15 02:51:00,
2013-01-15 13:54:00,79.8,60.1,29.96,NNE,27,3.0,3.0,51,0.00,,,0.03,390,Wunderground v.1.15,2013-01-15 02:54:00,
2013-01-15 13:56:00,79.1,61.0,29.96,ENE,68,3.0,-999.0,54,0.03,,,0.03,961,Wunderground v.1.15,2013-01-15 02:56:00,
2013-01-15 13:59:00,77.8,59.8,29.97,ENE,69,4.0,4.0,54,0.00,,,0.03,490,Wunderground v.1.15,2013-01-15 02:59:00,
2013-01-15 14:01:00,79.1,61.0,29.96,ENE,68,3.0,-999.0,54,0.03,,,0.03,961,Wunderground v.1.15,2013-01-15 03:01:00,
2013-01-15 14:04:00,79.1,61.0,29.96,ENE,68,3.0,-999.0,54,0.03,,,0.03,961,Wunderground v.1.15,2013-01-15 03:04:00,
2013-01-15 14:06:00,79.1,61.0,29.96,ENE,68,3.0,-999.0,54,0.03,,,0.03,961,Wunderground v.1.15,2013-01-15 03:06:00,
2013-01-15 14:09:00,76.6,60.7,29.97,NE,35,3.0,4.0,58,0.00,,,0.03,543,Wunderground v.1.15,2013-01-15 03:09:00,
2013-01-15 14:11:00,79.1,61.0,29.96,ENE,68,3.0,-999.0,54,0.03,,,0.03,961,Wunderground v.1.15,2013-01-15 03:11:00,
2013-01-15 14:14:00,76.5,60.1,29.97,ENE,65,3.0,8.0,57,0.00,,,0.03,482,Wunderground v.1.15,2013-01-15 03:14:00,
2013-01-15 14:16:00,76.5,61.1,29.96,NE,45,3.0,-999.0,59,0.00,,,0.03,430,Wunderground v.1.15,2013-01-15 03:16:00,
2013-01-15 14:19:00,76.9,60.5,29.96,NW,320,3.0,8.0,57,0.00,,,0.03,357,Wunderground v.1.15,2013-01-15 03:19:00,
2013-01-15 14:21:00,76.5,61.1,29.96,NE,45,3.0,-999.0,59,0.00,,,0.03,430,Wunderground v.1.15,2013-01-15 03:21:00,
2013-01-15 14:24:00,75.9,60.5,29.96,WNW,287,2.0,2.0,59,0.00,,,0.03,345,Wunderground v.1.15,2013-01-15 03:24:00,
2013-01-15 14:26:00,76.5,61.1,29.96,NE,45,3.0,-999.0,59,0.00,,,0.03,430,Wunderground v.1.15,2013-01-15 03:26:00,
2013-01-15 14:29:00,76.5,61.1,29.96,NE,45,3.0,-999.0,59,0.00,,,0.03,430,Wunderground v.1.15,2013-01-15 03:29:00,
2013-01-15 14:31:00,76.5,61.1,29.96,NE,45,3.0,-999.0,59,0.00,,,0.03,430,Wunderground v.1.15,2013-01-15 03:31:00,
2013-01-15 14:34:00,76.0,60.6,29.96,SW,216,3.0,3.0,59,0.00,,,0.03,380,Wunderground v.1.15,2013-01-15 03:34:00,
2013-01-15 14:36:00,76.5,61.1,29.96,NE,45,3.0,-999.0,59,0.00,,,0.03,430,Wunderground v.1.15,2013-01-15 03:36:00,
2013-01-15 14:39:00,76.5,61.1,29.96,NE,45,3.0,-999.0,59,0.00,,,0.03,430,Wunderground v.1.15,2013-01-15 03:39:00,
2013-01-15 14:41:00,76.5,61.1,29.96,NE,45,3.0,-999.0,59,0.00,,,0.03,430,Wunderground v.1.15,2013-01-15 03:41:00,
2013-01-15 14:44:00,76.3,60.9,29.95,NNE,17,3.0,3.0,59,0.00,,,0.03,457,Wunderground v.1.15,2013-01-15 03:44:00,
2013-01-15 14:46:00,76.6,60.7,29.94,ENE,68,3.0,-999.0,58,0.00,,,0.03,480,Wunderground v.1.15,2013-01-15 03:46:00,
2013-01-15 14:49:00,76.9,61.5,29.95,ENE,58,3.0,3.0,59,0.00,,,0.03,501,Wunderground v.1.15,2013-01-15 03:49:00,
2013-01-15 14:51:00,76.6,60.7,29.94,ENE,68,3.0,-999.0,58,0.00,,,0.03,480,Wunderground v.1.15,2013-01-15 03:51:00,
2013-01-15 14:54:00,77.6,61.7,29.94,ENE,68,2.0,2.0,58,0.00,,,0.03,343,Wunderground v.1.15,2013-01-15 03:54:00,
2013-01-15 14:56:00,76.6,60.7,29.94,ENE,68,3.0,-999.0,58,0.00,,,0.03,480,Wunderground v.1.15,2013-01-15 03:56:00,
2013-01-15 14:59:00,77.4,61.5,29.94,East,83,3.0,7.0,58,0.00,,,0.03,954,Wunderground v.1.15,2013-01-15 03:59:00,
2013-01-15 15:01:00,76.6,60.7,29.94,ENE,68,3.0,-999.0,58,0.00,,,0.03,480,Wunderground v.1.15,2013-01-15 04:01:00,
2013-01-15 15:04:00,76.6,60.7,29.94,ENE,68,3.0,-999.0,58,0.00,,,0.03,480,Wunderground v.1.15,2013-01-15 04:04:00,
2013-01-15 15:06:00,76.6,60.7,29.94,ENE,68,3.0,-999.0,58,0.00,,,0.03,480,Wunderground v.1.15,2013-01-15 04:06:00,
2013-01-15 15:09:00,77.2,59.3,29.93,SSE,161,4.0,4.0,54,0.00,,,0.03,896,Wunderground v.1.15,2013-01-15 04:09:00,
2013-01-15 15:11:00,76.6,60.7,29.94,ENE,68,3.0,-999.0,58,0.00,,,0.03,480,Wunderground v.1.15,2013-01-15 04:11:00,
2013-01-15 15:14:00,77.6,60.7,29.93,West,263,4.0,4.0,56,0.00,,,0.03,874,Wunderground v.1.15,2013-01-15 04:14:00,
2013-01-15 15:16:00,77.8,60.3,29.93,NE,45,4.0,-999.0,55,0.00,,,0.03,893,Wunderground v.1.15,2013-01-15 04:16:00,
2013-01-15 15:19:00,78.7,60.7,29.93,North,360,4.0,4.0,54,0.00,,,0.03,886,Wunderground v.1.15,2013-01-15 04:19:00,
2013-01-15 15:21:00,77.8,60.3,29.93,NE,45,4.0,-999.0,55,0.00,,,0.03,893,Wunderground v.1.15,2013-01-15 04:21:00,
2013-01-15 15:24:00,78.8,61.3,29.93,NE,39,3.0,3.0,55,0.00,,,0.03,853,Wunderground v.1.15,2013-01-15 04:24:00,
2013-01-15 15:26:00,77.8,60.3,29.93,NE,45,4.0,-999.0,55,0.00,,,0.03,893,Wunderground v.1.15,2013-01-15 04:26:00,
2013-01-15 15:29:00,77.8,60.3,29.93,NE,45,4.0,-999.0,55,0.00,,,0.03,893,Wunderground v.1.15,2013-01-15 04:29:00,
2013-01-15 15:31:00,77.8,60.3,29.93,NE,45,4.0,-999.0,55,0.00,,,0.03,893,Wunderground v.1.15,2013-01-15 04:31:00,
2013-01-15 15:34:00,77.6,61.7,29.93,NE,52,4.0,4.0,58,0.00,,,0.03,833,Wunderground v.1.15,2013-01-15 04:34:00,
2013-01-15 15:36:00,77.8,60.3,29.93,NE,45,4.0,-999.0,55,0.00,,,0.03,893,Wunderground v.1.15,2013-01-15 04:36:00,
2013-01-15 15:39:00,77.8,60.3,29.93,NE,45,4.0,-999.0,55,0.00,,,0.03,893,Wunderground v.1.15,2013-01-15 04:39:00,
2013-01-15 15:41:00,77.8,60.3,29.93,NE,45,4.0,-999.0,55,0.00,,,0.03,893,Wunderground v.1.15,2013-01-15 04:41:00,
2013-01-15 15:44:00,78.6,62.1,29.92,SE,138,3.0,4.0,57,0.00,,,0.03,814,Wunderground v.1.15,2013-01-15 04:44:00,
2013-01-15 15:46:00,78.0,63.5,29.92,ENE,68,4.0,-999.0,61,0.00,,,0.03,821,Wunderground v.1.15,2013-01-15 04:46:00,
2013-01-15 15:49:00,78.0,63.0,29.92,ENE,63,4.0,8.0,60,0.00,,,0.03,810,Wunderground v.1.15,2013-01-15 04:49:00,
2013-01-15 15:51:00,78.0,63.5,29.92,ENE,68,4.0,-999.0,61,0.00,,,0.03,821,Wunderground v.1.15,2013-01-15 04:51:00,
2013-01-15 15:54:00,77.6,63.1,29.92,WNW,284,5.0,5.0,61,0.00,,,0.03,816,Wunderground v.1.15,2013-01-15 04:54:00,
2013-01-15 15:56:00,78.0,63.5,29.92,ENE,68,4.0,-999.0,61,0.00,,,0.03,821,Wunderground v.1.15,2013-01-15 04:56:00,
2013-01-15 15:59:00,78.0,63.5,29.92,ENE,68,4.0,-999.0,61,0.00,,,0.03,821,Wunderground v.1.15,2013-01-15 04:59:00,
2013-01-15 16:01:00,78.0,63.5,29.92,ENE,68,4.0,-999.0,61,0.00,,,0.03,821,Wunderground v.1.15,2013-01-15 05:01:00,
2013-01-15 16:04:00,76.7,61.8,29.92,NNE,26,6.0,6.0,60,0.00,,,0.03,765,Wunderground v.1.15,2013-01-15 05:04:00,
2013-01-15 16:06:00,78.0,63.5,29.92,ENE,68,4.0,-999.0,61,0.00,,,0.03,821,Wunderground v.1.15,2013-01-15 05:06:00,
2013-01-15 16:09:00,76.5,62.5,29.92,ENE,69,6.0,8.0,62,0.00,,,0.03,749,Wunderground v.1.15,2013-01-15 05:09:00,
2013-01-15 16:11:00,78.0,63.5,29.92,ENE,68,4.0,-999.0,61,0.00,,,0.03,821,Wunderground v.1.15,2013-01-15 05:11:00,
2013-01-15 16:14:00,76.2,62.2,29.92,NNE,26,6.0,6.0,62,0.00,,,0.03,742,Wunderground v.1.15,2013-01-15 05:14:00,
2013-01-15 16:16:00,76.6,62.6,29.93,ENE,68,6.0,-999.0,62,0.00,,,0.03,740,Wunderground v.1.15,2013-01-15 05:16:00,
2013-01-15 16:19:00,75.9,62.4,29.92,NE,36,6.0,7.0,63,0.00,,,0.03,724,Wunderground v.1.15,2013-01-15 05:19:00,
2013-01-15 16:21:00,76.6,62.6,29.93,ENE,68,6.0,-999.0,62,0.00,,,0.03,740,Wunderground v.1.15,2013-01-15 05:21:00,
2013-01-15 16:24:00,76.6,62.6,29.93,ENE,68,6.0,-999.0,62,0.00,,,0.03,740,Wunderground v.1.15,2013-01-15 05:24:00,
2013-01-15 16:26:00,76.6,62.6,29.93,ENE,68,6.0,-999.0,62,0.00,,,0.03,740,Wunderground v.1.15,2013-01-15 05:26:00,
2013-01-15 16:29:00,77.1,63.1,29.93,ENE,63,4.0,7.0,62,0.00,,,0.03,710,Wunderground v.1.15,2013-01-15 05:29:00,
2013-01-15 16:31:00,76.6,62.6,29.93,ENE,68,6.0,-999.0,62,0.00,,,0.03,740,Wunderground v.1.15,2013-01-15 05:31:00,
2013-01-15 16:34:00,76.6,62.6,29.93,ENE,68,6.0,-999.0,62,0.00,,,0.03,740,Wunderground v.1.15,2013-01-15 05:34:00,
2013-01-15 16:36:00,76.6,62.6,29.93,ENE,68,6.0,-999.0,62,0.00,,,0.03,740,Wunderground v.1.15,2013-01-15 05:36:00,
2013-01-15 16:39:00,74.6,62.1,29.92,NE,53,5.0,13.0,65,0.00,,,0.03,257,Wunderground v.1.15,2013-01-15 05:39:00,
2013-01-15 16:41:00,76.6,62.6,29.93,ENE,68,6.0,-999.0,62,0.00,,,0.03,740,Wunderground v.1.15,2013-01-15 05:41:00,
2013-01-15 16:44:00,76.6,62.6,29.93,ENE,68,6.0,-999.0,62,0.00,,,0.03,740,Wunderground v.1.15,2013-01-15 05:44:00,
2013-01-15 16:46:00,74.7,61.3,29.92,ENE,68,5.0,-999.0,63,0.00,,,0.03,338,Wunderground v.1.15,2013-01-15 05:46:00,
2013-01-15 16:49:00,74.0,61.5,29.93,ENE,69,6.0,9.0,65,0.00,,,0.03,302,Wunderground v.1.15,2013-01-15 05:49:00,
2013-01-15 16:51:00,74.7,61.3,29.92,ENE,68,5.0,-999.0,63,0.00,,,0.03,338,Wunderground v.1.15,2013-01-15 05:51:00,
2013-01-15 16:54:00,73.9,61.4,29.93,NE,54,5.0,5.0,65,0.00,,,0.03,281,Wunderground v.1.15,2013-01-15 05:54:00,
2013-01-15 16:56:00,74.7,61.3,29.92,ENE,68,5.0,-999.0,63,0.00,,,0.03,338,Wunderground v.1.15,2013-01-15 05:56:00,
2013-01-15 16:59:00,74.7,61.3,29.92,ENE,68,5.0,-999.0,63,0.00,,,0.03,338,Wunderground v.1.15,2013-01-15 05:59:00,
2013-01-15 17:01:00,74.7,61.3,29.92,ENE,68,5.0,-999.0,63,0.00,,,0.03,338,Wunderground v.1.15,2013-01-15 06:01:00,
2013-01-15 17:04:00,74.9,61.5,29.92,NE,36,4.0,4.0,63,0.00,,,0.03,295,Wunderground v.1.15,2013-01-15 06:04:00,
2013-01-15 17:06:00,74.7,61.3,29.92,ENE,68,5.0,-999.0,63,0.00,,,0.03,338,Wunderground v.1.15,2013-01-15 06:06:00,
2013-01-15 17:09:00,75.3,62.3,29.92,NNE,17,3.0,5.0,64,0.00,,,0.03,267,Wunderground v.1.15,2013-01-15 06:09:00,
2013-01-15 17:11:00,74.7,61.3,29.92,ENE,68,5.0,-999.0,63,0.00,,,0.03,338,Wunderground v.1.15,2013-01-15 06:11:00,
2013-01-15 17:14:00,74.7,61.3,29.92,ENE,68,5.0,-999.0,63,0.00,,,0.03,338,Wunderground v.1.15,2013-01-15 06:14:00,
2013-01-15 17:16:00,75.7,62.7,29.91,ENE,68,5.0,-999.0,64,0.00,,,0.03,503,Wunderground v.1.15,2013-01-15 06:16:00,
2013-01-15 17:19:00,76.9,62.9,29.92,NE,51,4.0,5.0,62,0.00,,,0.03,592,Wunderground v.1.15,2013-01-15 06:19:00,
2013-01-15 17:21:00,75.7,62.7,29.91,ENE,68,5.0,-999.0,64,0.00,,,0.03,503,Wunderground v.1.15,2013-01-15 06:21:00,
2013-01-15 17:24:00,76.2,61.8,29.91,ENE,60,5.0,5.0,61,0.00,,,0.03,519,Wunderground v.1.15,2013-01-15 06:24:00,
2013-01-15 17:26:00,75.7,62.7,29.91,ENE,68,5.0,-999.0,64,0.00,,,0.03,503,Wunderground v.1.15,2013-01-15 06:26:00,
2013-01-15 17:29:00,75.7,62.7,29.91,ENE,68,5.0,-999.0,64,0.00,,,0.03,503,Wunderground v.1.15,2013-01-15 06:29:00,
2013-01-15 17:31:00,75.7,62.7,29.91,ENE,68,5.0,-999.0,64,0.00,,,0.03,503,Wunderground v.1.15,2013-01-15 06:31:00,
2013-01-15 17:34:00,75.5,62.5,29.91,South,189,6.0,6.0,64,0.00,,,0.03,471,Wunderground v.1.15,2013-01-15 06:34:00,
2013-01-15 17:36:00,75.7,62.7,29.91,ENE,68,5.0,-999.0,64,0.00,,,0.03,503,Wunderground v.1.15,2013-01-15 06:36:00,
2013-01-15 17:39:00,75.0,62.4,29.90,NE,49,5.0,6.0,65,0.00,,,0.03,455,Wunderground v.1.15,2013-01-15 06:39:00,
2013-01-15 17:41:00,75.7,62.7,29.91,ENE,68,5.0,-999.0,64,0.00,,,0.03,503,Wunderground v.1.15,2013-01-15 06:41:00,
2013-01-15 17:44:00,75.7,62.7,29.91,ENE,68,5.0,-999.0,64,0.00,,,0.03,503,Wunderground v.1.15,2013-01-15 06:44:00,
2013-01-15 17:46:00,75.3,62.3,29.91,ENE,68,5.0,-999.0,64,0.00,,,0.03,434,Wunderground v.1.15,2013-01-15 06:46:00,
2013-01-15 17:49:00,75.3,62.7,29.91,ENE,75,5.0,5.0,65,0.00,,,0.03,417,Wunderground v.1.15,2013-01-15 06:49:00,
2013-01-15 17:51:00,75.3,62.3,29.91,ENE,68,5.0,-999.0,64,0.00,,,0.03,434,Wunderground v.1.15,2013-01-15 06:51:00,
2013-01-15 17:54:00,75.6,63.0,29.91,ESE,115,5.0,5.0,65,0.00,,,0.03,396,Wunderground v.1.15,2013-01-15 06:54:00,
2013-01-15 17:56:00,75.3,62.3,29.91,ENE,68,5.0,-999.0,64,0.00,,,0.03,434,Wunderground v.1.15,2013-01-15 06:56:00,
2013-01-15 17:59:00,74.9,61.9,29.91,NNE,14,5.0,5.0,64,0.00,,,0.03,381,Wunderground v.1.15,2013-01-15 06:59:00,
2013-01-15 18:01:00,75.3,62.3,29.91,ENE,68,5.0,-999.0,64,0.00,,,0.03,434,Wunderground v.1.15,2013-01-15 07:01:00,
2013-01-15 18:04:00,74.8,62.2,29.91,NE,40,5.0,7.0,65,0.00,,,0.03,364,Wunderground v.1.15,2013-01-15 07:04:00,
2013-01-15 18:06:00,75.3,62.3,29.91,ENE,68,5.0,-999.0,64,0.00,,,0.03,434,Wunderground v.1.15,2013-01-15 07:06:00,
2013-01-15 18:09:00,75.3,62.3,29.91,ENE,68,5.0,-999.0,64,0.00,,,0.03,434,Wunderground v.1.15,2013-01-15 07:09:00,
2013-01-15 18:11:00,75.3,62.3,29.91,ENE,68,5.0,-999.0,64,0.00,,,0.03,434,Wunderground v.1.15,2013-01-15 07:11:00,
2013-01-15 18:14:00,74.6,62.5,29.90,East,98,6.0,6.0,66,0.00,,,0.03,325,Wunderground v.1.15,2013-01-15 07:14:00,
2013-01-15 18:16:00,74.8,61.4,29.91,ENE,68,5.0,-999.0,63,0.00,,,0.03,324,Wunderground v.1.15,2013-01-15 07:16:00,
2013-01-15 18:19:00,74.9,61.9,29.91,ESE,104,6.0,9.0,64,0.00,,,0.03,309,Wunderground v.1.15,2013-01-15 07:19:00,
2013-01-15 18:21:00,74.8,61.4,29.91,ENE,68,5.0,-999.0,63,0.00,,,0.03,324,Wunderground v.1.15,2013-01-15 07:21:00,
2013-01-15 18:24:00,74.9,61.9,29.91,ENE,57,5.0,5.0,64,0.00,,,0.03,290,Wunderground v.1.15,2013-01-15 07:24:00,
2013-01-15 18:26:00,74.8,61.4,29.91,ENE,68,5.0,-999.0,63,0.00,,,0.03,324,Wunderground v.1.15,2013-01-15 07:26:00,
2013-01-15 18:29:00,75.2,61.7,29.91,East,84,5.0,6.0,63,0.00,,,0.03,272,Wunderground v.1.15,2013-01-15 07:29:00,
2013-01-15 18:31:00,74.8,61.4,29.91,ENE,68,5.0,-999.0,63,0.00,,,0.03,324,Wunderground v.1.15,2013-01-15 07:31:00,
2013-01-15 18:34:00,74.8,61.4,29.91,ENE,68,5.0,-999.0,63,0.00,,,0.03,324,Wunderground v.1.15,2013-01-15 07:34:00,
2013-01-15 18:36:00,74.8,61.4,29.91,ENE,68,5.0,-999.0,63,0.00,,,0.03,324,Wunderground v.1.15,2013-01-15 07:36:00,
2013-01-15 18:39:00,75.0,62.0,29.92,NE,53,4.0,8.0,64,0.00,,,0.03,236,Wunderground v.1.15,2013-01-15 07:39:00,
2013-01-15 18:41:00,74.8,61.4,29.91,ENE,68,5.0,-999.0,63,0.00,,,0.03,324,Wunderground v.1.15,2013-01-15 07:41:00,
2013-01-15 18:44:00,74.9,62.3,29.92,NNE,17,4.0,8.0,65,0.00,,,0.03,216,Wunderground v.1.15,2013-01-15 07:44:00,
2013-01-15 18:46:00,74.5,63.2,29.92,NE,45,4.0,-999.0,68,0.00,,,0.03,214,Wunderground v.1.15,2013-01-15 07:46:00,
2013-01-15 18:49:00,74.5,63.2,29.92,NE,45,4.0,-999.0,68,0.00,,,0.03,214,Wunderground v.1.15,2013-01-15 07:49:00,
2013-01-15 18:51:00,74.5,63.2,29.92,NE,45,4.0,-999.0,68,0.00,,,0.03,214,Wunderground v.1.15,2013-01-15 07:51:00,
2013-01-15 18:54:00,73.9,62.7,29.92,ENE,59,4.0,7.0,68,0.00,,,0.03,179,Wunderground v.1.15,2013-01-15 07:54:00,
2013-01-15 18:56:00,74.5,63.2,29.92,NE,45,4.0,-999.0,68,0.00,,,0.03,214,Wunderground v.1.15,2013-01-15 07:56:00,
2013-01-15 18:59:00,74.5,63.2,29.92,NE,45,4.0,-999.0,68,0.00,,,0.03,214,Wunderground v.1.15,2013-01-15 07:59:00,
2013-01-15 19:01:00,74.5,63.2,29.92,NE,45,4.0,-999.0,68,0.00,,,0.03,214,Wunderground v.1.15,2013-01-15 08:01:00,
2013-01-15 19:04:00,73.3,62.5,29.93,NE,44,4.0,4.0,69,0.00,,,0.03,141,Wunderground v.1.15,2013-01-15 08:04:00,
2013-01-15 19:06:00,74.5,63.2,29.92,NE,45,4.0,-999.0,68,0.00,,,0.03,214,Wunderground v.1.15,2013-01-15 08:06:00,
2013-01-15 19:09:00,73.3,62.5,29.93,ENE,63,4.0,10.0,69,0.00,,,0.03,123,Wunderground v.1.15,2013-01-15 08:09:00,
2013-01-15 19:11:00,74.5,63.2,29.92,NE,45,4.0,-999.0,68,0.00,,,0.03,214,Wunderground v.1.15,2013-01-15 08:11:00,
2013-01-15 19:14:00,74.5,63.2,29.92,NE,45,4.0,-999.0,68,0.00,,,0.03,214,Wunderground v.1.15,2013-01-15 08:14:00,
2013-01-15 19:16:00,73.0,62.6,29.93,ENE,68,5.0,-999.0,70,0.00,,,0.03,105,Wunderground v.1.15,2013-01-15 08:16:00,
2013-01-15 19:19:00,72.9,62.1,29.93,NE,45,4.0,5.0,69,0.00,,,0.03,90,Wunderground v.1.15,2013-01-15 08:19:00,
2013-01-15 19:21:00,73.0,62.6,29.93,ENE,68,5.0,-999.0,70,0.00,,,0.03,105,Wunderground v.1.15,2013-01-15 08:21:00,
2013-01-15 19:24:00,72.6,62.3,29.93,ENE,61,5.0,5.0,70,0.00,,,0.03,70,Wunderground v.1.15,2013-01-15 08:24:00,
2013-01-15 19:26:00,73.0,62.6,29.93,ENE,68,5.0,-999.0,70,0.00,,,0.03,105,Wunderground v.1.15,2013-01-15 08:26:00,
2013-01-15 19:29:00,73.0,62.6,29.93,ENE,68,5.0,-999.0,70,0.00,,,0.03,105,Wunderground v.1.15,2013-01-15 08:29:00,
2013-01-15 19:31:00,73.0,62.6,29.93,ENE,68,5.0,-999.0,70,0.00,,,0.03,105,Wunderground v.1.15,2013-01-15 08:31:00,
2013-01-15 19:34:00,72.1,61.8,29.93,North,11,6.0,6.0,70,0.00,,,0.03,42,Wunderground v.1.15,2013-01-15 08:34:00,
2013-01-15 19:36:00,73.0,62.6,29.93,ENE,68,5.0,-999.0,70,0.00,,,0.03,105,Wunderground v.1.15,2013-01-15 08:36:00,
2013-01-15 19:39:00,72.0,61.7,29.93,ENE,60,5.0,7.0,70,0.00,,,0.03,32,Wunderground v.1.15,2013-01-15 08:39:00,
2013-01-15 19:41:00,73.0,62.6,29.93,ENE,68,5.0,-999.0,70,0.00,,,0.03,105,Wunderground v.1.15,2013-01-15 08:41:00,
2013-01-15 19:44:00,71.7,61.0,29.93,NE,38,5.0,5.0,69,0.00,,,0.03,23,Wunderground v.1.15,2013-01-15 08:44:00,
2013-01-15 19:46:00,71.7,61.8,29.93,ENE,68,5.0,-999.0,71,0.00,,,0.03,26,Wunderground v.1.15,2013-01-15 08:46:00,
2013-01-15 19:49:00,71.4,61.1,29.93,ESE,117,6.0,6.0,70,0.00,,,0.03,16,Wunderground v.1.15,2013-01-15 08:49:00,
2013-01-15 19:51:00,71.7,61.8,29.93,ENE,68,5.0,-999.0,71,0.00,,,0.03,26,Wunderground v.1.15,2013-01-15 08:51:00,
2013-01-15 19:54:00,71.7,61.8,29.93,ENE,68,5.0,-999.0,71,0.00,,,0.03,26,Wunderground v.1.15,2013-01-15 08:54:00,
2013-01-15 19:56:00,71.7,61.8,29.93,ENE,68,5.0,-999.0,71,0.00,,,0.03,26,Wunderground v.1.15,2013-01-15 08:56:00,
2013-01-15 19:59:00,71.2,61.3,29.93,ENE,74,4.0,6.0,71,0.00,,,0.03,9,Wunderground v.1.15,2013-01-15 08:59:00,
2013-01-15 20:01:00,71.7,61.8,29.93,ENE,68,5.0,-999.0,71,0.00,,,0.03,26,Wunderground v.1.15,2013-01-15 09:01:00,
2013-01-15 20:04:00,71.7,61.8,29.93,ENE,68,5.0,-999.0,71,0.00,,,0.03,26,Wunderground v.1.15,2013-01-15 09:04:00,
2013-01-15 20:06:00,71.7,61.8,29.93,ENE,68,5.0,-999.0,71,0.00,,,0.03,26,Wunderground v.1.15,2013-01-15 09:06:00,
2013-01-15 20:09:00,71.0,61.1,29.93,ENE,70,4.0,4.0,71,0.00,,,0.03,0,Wunderground v.1.15,2013-01-15 09:09:00,
2013-01-15 20:11:00,71.7,61.8,29.93,ENE,68,5.0,-999.0,71,0.00,,,0.03,26,Wunderground v.1.15,2013-01-15 09:11:00,
2013-01-15 20:14:00,70.8,60.9,29.93,ENE,74,5.0,12.0,71,0.00,,,0.03,0,Wunderground v.1.15,2013-01-15 09:14:00,
2013-01-15 20:16:00,70.8,61.3,29.93,ENE,68,5.0,-999.0,72,0.00,,,0.03,1,Wunderground v.1.15,2013-01-15 09:16:00,
2013-01-15 20:19:00,70.8,61.3,29.93,ENE,68,5.0,-999.0,72,0.00,,,0.03,1,Wunderground v.1.15,2013-01-15 09:19:00,
2013-01-15 20:21:00,70.8,61.3,29.93,ENE,68,5.0,-999.0,72,0.00,,,0.03,1,Wunderground v.1.15,2013-01-15 09:21:00,
2013-01-15 20:24:00,70.6,61.1,29.93,East,98,5.0,5.0,72,0.00,,,0.03,0,Wunderground v.1.15,2013-01-15 09:24:00,
2013-01-15 20:26:00,70.8,61.3,29.93,ENE,68,5.0,-999.0,72,0.00,,,0.03,1,Wunderground v.1.15,2013-01-15 09:26:00,
2013-01-15 20:29:00,70.5,61.0,29.93,ENE,75,5.0,11.0,72,0.00,,,0.03,0,Wunderground v.1.15,2013-01-15 09:29:00,
2013-01-15 20:31:00,70.8,61.3,29.93,ENE,68,5.0,-999.0,72,0.00,,,0.03,1,Wunderground v.1.15,2013-01-15 09:31:00,
2013-01-15 20:34:00,70.8,61.3,29.93,ENE,68,5.0,-999.0,72,0.00,,,0.03,1,Wunderground v.1.15,2013-01-15 09:34:00,
2013-01-15 20:36:00,70.8,61.3,29.93,ENE,68,5.0,-999.0,72,0.00,,,0.03,1,Wunderground v.1.15,2013-01-15 09:36:00,
2013-01-15 20:39:00,70.4,60.9,29.93,NE,44,5.0,8.0,72,0.00,,,0.03,0,Wunderground v.1.15,2013-01-15 09:39:00,
2013-01-15 20:41:00,70.8,61.3,29.93,ENE,68,5.0,-999.0,72,0.00,,,0.03,1,Wunderground v.1.15,2013-01-15 09:41:00,
2013-01-15 20:44:00,70.3,60.8,29.93,East,86,5.0,5.0,72,0.00,,,0.03,0,Wunderground v.1.15,2013-01-15 09:44:00,
2013-01-15 20:46:00,70.3,60.8,29.93,NE,45,5.0,-999.0,72,0.00,,,0.03,0,Wunderground v.1.15,2013-01-15 09:46:00,
2013-01-15 20:49:00,70.3,60.8,29.93,NE,45,5.0,-999.0,72,0.00,,,0.03,0,Wunderground v.1.15,2013-01-15 09:49:00,
2013-01-15 20:51:00,70.3,60.8,29.93,NE,45,5.0,-999.0,72,0.00,,,0.03,0,Wunderground v.1.15,2013-01-15 09:51:00,
2013-01-15 20:54:00,70.2,60.7,29.93,ENE,64,5.0,5.0,72,0.00,,,0.03,0,Wunderground v.1.15,2013-01-15 09:54:00,
2013-01-15 20:56:00,70.3,60.8,29.93,NE,45,5.0,-999.0,72,0.00,,,0.03,0,Wunderground v.1.15,2013-01-15 09:56:00,
2013-01-15 20:59:00,70.2,60.7,29.93,North,360,4.0,5.0,72,0.00,,,0.03,0,Wunderground v.1.15,2013-01-15 09:59:00,
2013-01-15 21:01:00,70.3,60.8,29.93,NE,45,5.0,-999.0,72,0.00,,,0.03,0,Wunderground v.1.15,2013-01-15 10:01:00,
2013-01-15 21:04:00,70.3,60.8,29.93,NE,45,5.0,-999.0,72,0.00,,,0.03,0,Wunderground v.1.15,2013-01-15 10:04:00,
2013-01-15 21:06:00,70.3,60.8,29.93,NE,45,5.0,-999.0,72,0.00,,,0.03,0,Wunderground v.1.15,2013-01-15 10:06:00,
2013-01-15 21:09:00,70.0,60.9,29.94,NNE,21,4.0,4.0,73,0.00,,,0.03,0,Wunderground v.1.15,2013-01-15 10:09:00,
2013-01-15 21:11:00,70.3,60.8,29.93,NE,45,5.0,-999.0,72,0.00,,,0.03,0,Wunderground v.1.15,2013-01-15 10:11:00,
2013-01-15 21:14:00,70.3,60.8,29.93,NE,45,5.0,-999.0,72,0.00,,,0.03,0,Wunderground v.1.15,2013-01-15 10:14:00,
2013-01-15 21:16:00,70.0,60.9,29.94,NE,45,4.0,-999.0,73,0.00,,,0.03,0,Wunderground v.1.15,2013-01-15 10:16:00,
2013-01-15 21:19:00,69.9,60.8,29.93,North,355,4.0,4.0,73,0.00,,,0.03,0,Wunderground v.1.15,2013-01-15 10:19:00,
2013-01-15 21:21:00,70.0,60.9,29.94,NE,45,4.0,-999.0,73,0.00,,,0.03,0,Wunderground v.1.15,2013-01-15 10:21:00,
2013-01-15 21:24:00,70.0,60.9,29.94,NE,45,4.0,-999.0,73,0.00,,,0.03,0,Wunderground v.1.15,2013-01-15 10:24:00,
2013-01-15 21:26:00,70.0,60.9,29.94,NE,45,4.0,-999.0,73,0.00,,,0.03,0,Wunderground v.1.15,2013-01-15 10:26:00,
2013-01-15 21:29:00,69.7,60.7,29.94,NE,52,3.0,5.0,73,0.00,,,0.03,0,Wunderground v.1.15,2013-01-15 10:29:00,
2013-01-15 21:31:00,70.0,60.9,29.94,NE,45,4.0,-999.0,73,0.00,,,0.03,0,Wunderground v.1.15,2013-01-15 10:31:00,
2013-01-15 21:34:00,70.0,60.9,29.94,NE,45,4.0,-999.0,73,0.00,,,0.03,0,Wunderground v.1.15,2013-01-15 10:34:00,
2013-01-15 21:36:00,70.0,60.9,29.94,NE,45,4.0,-999.0,73,0.00,,,0.03,0,Wunderground v.1.15,2013-01-15 10:36:00,
2013-01-15 21:39:00,69.5,60.5,29.93,NNE,13,3.0,3.0,73,0.00,,,0.03,0,Wunderground v.1.15,2013-01-15 10:39:00,
2013-01-15 21:41:00,70.0,60.9,29.94,NE,45,4.0,-999.0,73,0.00,,,0.03,0,Wunderground v.1.15,2013-01-15 10:41:00,
2013-01-15 21:44:00,70.0,60.9,29.94,NE,45,4.0,-999.0,73,0.00,,,0.03,0,Wunderground v.1.15,2013-01-15 10:44:00,
2013-01-15 21:46:00,69.4,60.8,29.93,NE,45,3.0,-999.0,74,0.00,,,0.03,0,Wunderground v.1.15,2013-01-15 10:46:00,
2013-01-15 21:49:00,69.4,60.8,29.93,NE,55,3.0,5.0,74,0.00,,,0.03,0,Wunderground v.1.15,2013-01-15 10:49:00,
2013-01-15 21:51:00,69.4,60.8,29.93,NE,45,3.0,-999.0,74,0.00,,,0.03,0,Wunderground v.1.15,2013-01-15 10:51:00,
2013-01-15 21:54:00,69.4,60.8,29.93,NE,45,3.0,-999.0,74,0.00,,,0.03,0,Wunderground v.1.15,2013-01-15 10:54:00,
2013-01-15 21:56:00,69.4,60.8,29.93,NE,45,3.0,-999.0,74,0.00,,,0.03,0,Wunderground v.1.15,2013-01-15 10:56:00,
2013-01-15 21:59:00,69.2,60.6,29.93,ENE,76,3.0,3.0,74,0.00,,,0.03,0,Wunderground v.1.15,2013-01-15 10:59:00,
2013-01-15 22:01:00,69.4,60.8,29.93,NE,45,3.0,-999.0,74,0.00,,,0.03,0,Wunderground v.1.15,2013-01-15 11:01:00,
2013-01-15 22:04:00,69.2,60.6,29.93,NNE,31,3.0,3.0,74,0.00,,,0.03,0,Wunderground v.1.15,2013-01-15 11:04:00,
2013-01-15 22:06:00,69.4,60.8,29.93,NE,45,3.0,-999.0,74,0.00,,,0.03,0,Wunderground v.1.15,2013-01-15 11:06:00,
2013-01-15 22:09:00,69.4,60.8,29.93,NE,45,3.0,-999.0,74,0.00,,,0.03,0,Wunderground v.1.15,2013-01-15 11:09:00,
2013-01-15 22:11:00,69.4,60.8,29.93,NE,45,3.0,-999.0,74,0.00,,,0.03,0,Wunderground v.1.15,2013-01-15 11:11:00,
2013-01-15 22:14:00,69.1,60.8,29.93,ENE,65,4.0,4.0,75,0.00,,,0.03,0,Wunderground v.1.15,2013-01-15 11:14:00,
2013-01-15 22:16:00,69.1,60.8,29.93,NE,45,3.0,-999.0,75,0.00,,,0.03,0,Wunderground v.1.15,2013-01-15 11:16:00,
2013-01-15 22:19:00,69.0,60.7,29.93,NNE,25,4.0,5.0,75,0.00,,,0.03,0,Wunderground v.1.15,2013-01-15 11:19:00,
2013-01-15 22:21:00,69.1,60.8,29.93,NE,45,3.0,-999.0,75,0.00,,,0.03,0,Wunderground v.1.15,2013-01-15 11:21:00,
2013-01-15 22:24:00,69.1,60.8,29.93,NE,45,3.0,-999.0,75,0.00,,,0.03,0,Wunderground v.1.15,2013-01-15 11:24:00,
2013-01-15 22:26:00,69.1,60.8,29.93,NE,45,3.0,-999.0,75,0.00,,,0.03,0,Wunderground v.1.15,2013-01-15 11:26:00,
2013-01-15 22:29:00,68.9,60.6,29.93,NE,53,3.0,4.0,75,0.00,,,0.03,0,Wunderground v.1.15,2013-01-15 11:29:00,
2013-01-15 22:31:00,69.1,60.8,29.93,NE,45,3.0,-999.0,75,0.00,,,0.03,0,Wunderground v.1.15,2013-01-15 11:31:00,
2013-01-15 22:34:00,69.1,60.8,29.93,NE,45,3.0,-999.0,75,0.00,,,0.03,0,Wunderground v.1.15,2013-01-15 11:34:00,
2013-01-15 22:36:00,69.1,60.8,29.93,NE,45,3.0,-999.0,75,0.00,,,0.03,0,Wunderground v.1.15,2013-01-15 11:36:00,
2013-01-15 22:39:00,68.8,60.6,29.93,NE,38,3.0,8.0,75,0.00,,,0.03,0,Wunderground v.1.15,2013-01-15 11:39:00,
2013-01-15 22:41:00,69.1,60.8,29.93,NE,45,3.0,-999.0,75,0.00,,,0.03,0,Wunderground v.1.15,2013-01-15 11:41:00,
2013-01-15 22:44:00,68.7,60.5,29.93,NE,51,2.0,4.0,75,0.00,,,0.03,0,Wunderground v.1.15,2013-01-15 11:44:00,
2013-01-15 22:46:00,68.7,60.8,29.93,NE,45,2.0,-999.0,76,0.00,,,0.03,0,Wunderground v.1.15,2013-01-15 11:46:00,
2013-01-15 22:49:00,68.6,60.7,29.93,NE,54,2.0,4.0,76,0.00,,,0.03,0,Wunderground v.1.15,2013-01-15 11:49:00,
2013-01-15 22:51:00,68.7,60.8,29.93,NE,45,2.0,-999.0,76,0.00,,,0.03,0,Wunderground v.1.15,2013-01-15 11:51:00,
2013-01-15 22:54:00,68.6,60.7,29.93,NE,48,2.0,2.0,76,0.00,,,0.03,0,Wunderground v.1.15,2013-01-15 11:54:00,
2013-01-15 22:56:00,68.7,60.8,29.93,NE,45,2.0,-999.0,76,0.00,,,0.03,0,Wunderground v.1.15,2013-01-15 11:56:00,
2013-01-15 22:59:00,68.7,60.8,29.93,NE,45,2.0,-999.0,76,0.00,,,0.03,0,Wunderground v.1.15,2013-01-15 11:59:00,
2013-01-15 23:01:00,68.7,60.8,29.93,NE,45,2.0,-999.0,76,0.00,,,0.03,0,Wunderground v.1.15,2013-01-15 12:01:00,
2013-01-15 23:04:00,68.4,60.5,29.92,NE,44,2.0,2.0,76,0.00,,,0.03,0,Wunderground v.1.15,2013-01-15 12:04:00,
2013-01-15 23:06:00,68.7,60.8,29.93,NE,45,2.0,-999.0,76,0.00,,,0.03,0,Wunderground v.1.15,2013-01-15 12:06:00,
2013-01-15 23:09:00,68.7,60.8,29.93,NE,45,2.0,-999.0,76,0.00,,,0.03,0,Wunderground v.1.15,2013-01-15 12:09:00,
2013-01-15 23:11:00,68.7,60.8,29.93,NE,45,2.0,-999.0,76,0.00,,,0.03,0,Wunderground v.1.15,2013-01-15 12:11:00,
2013-01-15 23:14:00,68.3,60.8,29.92,ENE,57,2.0,3.0,77,0.00,,,0.03,0,Wunderground v.1.15,2013-01-15 12:14:00,
2013-01-15 23:16:00,68.3,60.8,29.92,NE,45,2.0,-999.0,77,0.00,,,0.03,0,Wunderground v.1.15,2013-01-15 12:16:00,
2013-01-15 23:19:00,68.2,60.7,29.92,NNE,31,3.0,3.0,77,0.00,,,0.03,0,Wunderground v.1.15,2013-01-15 12:19:00,
2013-01-15 23:21:00,68.3,60.8,29.92,NE,45,2.0,-999.0,77,0.00,,,0.03,0,Wunderground v.1.15,2013-01-15 12:21:00,
2013-01-15 23:24:00,68.1,60.6,29.92,NE,38,3.0,3.0,77,0.00,,,0.03,0,Wunderground v.1.15,2013-01-15 12:24:00,
2013-01-15 23:26:00,68.3,60.8,29.92,NE,45,2.0,-999.0,77,0.00,,,0.03,0,Wunderground v.1.15,2013-01-15 12:26:00,
2013-01-15 23:29:00,68.3,60.8,29.92,NE,45,2.0,-999.0,77,0.00,,,0.03,0,Wunderground v.1.15,2013-01-15 12:29:00,
2013-01-15 23:31:00,68.3,60.8,29.92,NE,45,2.0,-999.0,77,0.00,,,0.03,0,Wunderground v.1.15,2013-01-15 12:31:00,
2013-01-15 23:34:00,68.0,60.5,29.91,NNE,27,3.0,3.0,77,0.00,,,0.03,0,Wunderground v.1.15,2013-01-15 12:34:00,
2013-01-15 23:36:00,68.3,60.8,29.92,NE,45,2.0,-999.0,77,0.00,,,0.03,0,Wunderground v.1.15,2013-01-15 12:36:00,
2013-01-15 23:39:00,67.9,60.8,29.91,NNE,22,2.0,4.0,78,0.00,,,0.03,0,Wunderground v.1.15,2013-01-15 12:39:00,
2013-01-15 23:41:00,68.3,60.8,29.92,NE,45,2.0,-999.0,77,0.00,,,0.03,0,Wunderground v.1.15,2013-01-15 12:41:00,
2013-01-15 23:44:00,68.3,60.8,29.92,NE,45,2.0,-999.0,77,0.00,,,0.03,0,Wunderground v.1.15,2013-01-15 12:44:00,
2013-01-15 23:46:00,67.8,61.0,29.91,NE,45,2.0,-999.0,79,0.00,,,0.03,0,Wunderground v.1.15,2013-01-15 12:46:00,
2013-01-15 23:49:00,67.7,60.6,29.91,ENE,59,2.0,3.0,78,0.00,,,0.03,0,Wunderground v.1.15,2013-01-15 12:49:00,
2013-01-15 23:51:00,67.8,61.0,29.91,NE,45,2.0,-999.0,79,0.00,,,0.03,0,Wunderground v.1.15,2013-01-15 12:51:00,
2013-01-15 23:54:00,67.8,61.0,29.91,NE,45,2.0,-999.0,79,0.00,,,0.03,0,Wunderground v.1.15,2013-01-15 12:54:00,
2013-01-15 23:56:00,67.8,61.0,29.91,NE,45,2.0,-999.0,79,0.00,,,0.03,0,Wunderground v.1.15,2013-01-15 12:56:00,
2013-01-15 23:59:00,67.6,60.9,29.91,NE,35,2.0,2.0,79,0.00,,,0.03,0,Wunderground v.1.15,2013-01-15 12:59:00,